LiveATC.Net - Listen to live air traffic control over the Internet!
Airport/ARTCC Code
Frequency Search
(e.g., 124.400, 128.75)
Site-wide search
 


Browse Feeds
Top 50 Feeds
HF Oceanic Feeds
Coverage Map
Bad Weather Areas

LiveATC FAQ
Offer LiveATC feed
Contact LiveATC.net
Press Inquiries

LiveATC on iPhone
LiveATC on Android

LiveATC Mobile
(Mobile browser)

ATC Audio Archives
Interesting Recordings

LiveATC Forums

Home Page
About LiveATC.net


Terms of Use
Privacy Policy

AIRMETs/SIGMETs

FAA Airport Status
NAS Status
Arrival Demand


Server Software By:
Icecast.org
Liquidsoap

Select an area of interest:
U.S. Feeds: Class B Airports | Class C Airports | Class D/Other Airports | ARTCC (Centers)
International Feeds: Canada | Europe | Oceania | Asia | South America | North/Central America | Africa
Misc Feeds: HF Feeds
Search by ICAO/IATA airport code:   (e.g., kbos, kjfk, lax, eham, etc.)


Currently Available Live Feeds: 3104
Status Updated: Mon Sep 26 2022 13:10:38 UTC


NOTICE

Unauthorized use prohibited. See LiveATC.net Terms of Service

Europe Airport Feeds

 

EFJY Tower (Archives)
Jyvaskyla, Finland

Feed Status: UP
Listen in your browser - HTML5 player(in browser, HTML5)
Click here to listen with your own player(launches your MP3 player)

EFJY 261250Z 15006KT 9999 FEW013 BKN030 09/06 Q1008

EFJY Flight Activity (Flightaware)

Listeners: 2 out of 1855 total

Jyvaskyla Tower: 118.000
Jyvaskyla Tower: 119.700

EFKU Tower/Approach (Archives)
Siilinjarvi, Finland

Feed Status: UP
Listen in your browser - HTML5 player(in browser, HTML5)
Click here to listen with your own player(launches your MP3 player)

EFKU 261250Z 11007KT 070V130 9999 SCT015 11/07 Q1009

EFKU Flight Activity (Flightaware)

Listeners: 1 out of 1855 total

Kuopio Approach: 130.600
Kuopio Tower: 120.150

Dutch Mil Radar (Archives)
Amsterdam, Netherlands

Feed Status: UP
Listen in your browser - HTML5 player(in browser, HTML5)
Click here to listen with your own player(launches your MP3 player)

EHLE 261255Z AUTO 21010KT 170V240 9999 FEW006 BKN007 BKN008 13/12 Q0996 REDZ TEMPO 4000 RADZ

EHLE Flight Activity (Flightaware)

Listeners: 2 out of 1855 total

Approach: 124.530
Dutch Mil Flight Info: 264.325
Dutch Mil Radar: 128.355
Dutch Mil Radar: 132.350

EHAA Radar ARTIP (Archives)
Amsterdam, Netherlands

Feed Status: UP
Listen in your browser - HTML5 player(in browser, HTML5)
Click here to listen with your own player(launches your MP3 player)

EHAM 261255Z 26009KT 230V300 9999 -RADZ FEW005 SCT015 14/12 Q0996 TEMPO 7000 -SHRA FEW018TCU

EHAM Flight Activity (Flightaware)

Listeners: 1 out of 1855 total

EHAA Radar Sector 1 ARTIP: 120.550

EHAA Radar East Inbound
Amsterdam, Netherlands

Feed Status: DOWN
Offline since: 2022-03-16 17:45:38 UTC

EHAM 261255Z 26009KT 230V300 9999 -RADZ FEW005 SCT015 14/12 Q0996 TEMPO 7000 -SHRA FEW018TCU

EHAA Radar Sector 2 East Inbound: 128.575

EHAA Radar East Outbound (Archives)
Amsterdam, Netherlands

Feed Status: UP
Listen in your browser - HTML5 player(in browser, HTML5)
Click here to listen with your own player(launches your MP3 player)

EHAM 261255Z 26009KT 230V300 9999 -RADZ FEW005 SCT015 14/12 Q0996 TEMPO 7000 -SHRA FEW018TCU

EHAM Flight Activity (Flightaware)

Listeners: 0 out of 1855 total

EHAA Radar Sector 2 East Outbound: 124.875

EHAA Radar North
Amsterdam, Netherlands

Feed Status: DOWN
Offline since: 2022-03-10 10:29:38 UTC

EHAM 261255Z 26009KT 230V300 9999 -RADZ FEW005 SCT015 14/12 Q0996 TEMPO 7000 -SHRA FEW018TCU

EHAA Radar Sector 1 North: 134.375

EHAA Radar Northwest (Archives)
Amsterdam, Netherlands

Feed Status: UP
Listen in your browser - HTML5 player(in browser, HTML5)
Click here to listen with your own player(launches your MP3 player)

EHAM 261255Z 26009KT 230V300 9999 -RADZ FEW005 SCT015 14/12 Q0996 TEMPO 7000 -SHRA FEW018TCU

EHAM Flight Activity (Flightaware)

Listeners: 1 out of 1855 total

EHAA Radar Sector 5 Northwest: 123.705

EHAA Radar RIVER
Amsterdam, Netherlands

Feed Status: DOWN
Offline since: 2022-03-16 17:45:38 UTC

EHAM 261255Z 26009KT 230V300 9999 -RADZ FEW005 SCT015 14/12 Q0996 TEMPO 7000 -SHRA FEW018TCU

EHAA Radar Sector 3 RIVER: 130.950

EHAA Radar South (Archives)
Amsterdam, Netherlands

Feed Status: UP
Listen in your browser - HTML5 player(in browser, HTML5)
Click here to listen with your own player(launches your MP3 player)

EHAM 261255Z 26009KT 230V300 9999 -RADZ FEW005 SCT015 14/12 Q0996 TEMPO 7000 -SHRA FEW018TCU

EHAM Flight Activity (Flightaware)

Listeners: 3 out of 1855 total

EHAA Radar Sector 3 South: 123.850

EHAA Radar South (Backup) (Archives)
Amsterdam, Netherlands

Feed Status: UP
Listen in your browser - HTML5 player(in browser, HTML5)
Click here to listen with your own player(launches your MP3 player)

EHAM 261255Z 26009KT 230V300 9999 -RADZ FEW005 SCT015 14/12 Q0996 TEMPO 7000 -SHRA FEW018TCU

EHAM Flight Activity (Flightaware)

Listeners: 0 out of 1855 total

EHAA Radar Sector 3 South Backup : 127.775

EHAA Radar Southwest (Archives)
Amsterdam, Netherlands

Feed Status: UP
Listen in your browser - HTML5 player(in browser, HTML5)
Click here to listen with your own player(launches your MP3 player)

EHAM 261255Z 26009KT 230V300 9999 -RADZ FEW005 SCT015 14/12 Q0996 TEMPO 7000 -SHRA FEW018TCU

EHAM Flight Activity (Flightaware)

Listeners: 1 out of 1855 total

EHAA Radar Sector 4 Southwest: 125.750

EHAA Radar SUGOL (Archives)
Amsterdam, Netherlands

Feed Status: UP
Listen in your browser - HTML5 player(in browser, HTML5)
Click here to listen with your own player(launches your MP3 player)

EHAM 261255Z 26009KT 230V300 9999 -RADZ FEW005 SCT015 14/12 Q0996 TEMPO 7000 -SHRA FEW018TCU

EHAM Flight Activity (Flightaware)

Listeners: 0 out of 1855 total

EHAA Radar Sector 5 SUGOL: 118.800

EHAM Airside Ops Mgr (AOM)
Amsterdam, Netherlands

Feed Status: DOWN
Offline since: 2022-03-16 17:45:38 UTC

EHAM 261255Z 26009KT 230V300 9999 -RADZ FEW005 SCT015 14/12 Q0996 TEMPO 7000 -SHRA FEW018TCU

Schiphol Airside Operations Manager: 130.475

EHAM App/Dep Backup (Archives)
Amsterdam, Netherlands

Feed Status: UP
Listen in your browser - HTML5 player(in browser, HTML5)
Click here to listen with your own player(launches your MP3 player)

EHAM 261255Z 26009KT 230V300 9999 -RADZ FEW005 SCT015 14/12 Q0996 TEMPO 7000 -SHRA FEW018TCU

EHAM Flight Activity (Flightaware)

Listeners: 0 out of 1855 total

Schiphol App/Dep Backup: 118.075

EHAM App/Dep TMA East (Archives)
Amsterdam, Netherlands

Feed Status: UP
Listen in your browser - HTML5 player(in browser, HTML5)
Click here to listen with your own player(launches your MP3 player)

EHAM 261255Z 26009KT 230V300 9999 -RADZ FEW005 SCT015 14/12 Q0996 TEMPO 7000 -SHRA FEW018TCU

EHAM Flight Activity (Flightaware)

Listeners: 3 out of 1855 total

Amsterdam Approach/Departure TMA East: 119.055

EHAM App/Dep TMA West (Archives)
Amsterdam, Netherlands

Feed Status: UP
Listen in your browser - HTML5 player(in browser, HTML5)
Click here to listen with your own player(launches your MP3 player)

EHAM 261255Z 26009KT 230V300 9999 -RADZ FEW005 SCT015 14/12 Q0996 TEMPO 7000 -SHRA FEW018TCU

EHAM Flight Activity (Flightaware)

Listeners: 0 out of 1855 total

Amsterdam Approach/Departure TMA West: 121.200

EHAM Apron (North) (Archives)
Amsterdam, Netherlands

Feed Status: UP
Listen in your browser - HTML5 player(in browser, HTML5)
Click here to listen with your own player(launches your MP3 player)

EHAM 261255Z 26009KT 230V300 9999 -RADZ FEW005 SCT015 14/12 Q0996 TEMPO 7000 -SHRA FEW018TCU

EHAM Flight Activity (Flightaware)

Listeners: 0 out of 1855 total

Schiphol Apron (North): 121.880

EHAM Apron (South) (Archives)
Amsterdam, Netherlands

Feed Status: UP
Listen in your browser - HTML5 player(in browser, HTML5)
Click here to listen with your own player(launches your MP3 player)

EHAM 261255Z 26009KT 230V300 9999 -RADZ FEW005 SCT015 14/12 Q0996 TEMPO 7000 -SHRA FEW018TCU

EHAM Flight Activity (Flightaware)

Listeners: 1 out of 1855 total

Schiphol Apron (South): 121.780

EHAM Arrival (Primary) (Archives)
Amsterdam, Netherlands

Feed Status: UP
Listen in your browser - HTML5 player(in browser, HTML5)
Click here to listen with your own player(launches your MP3 player)

EHAM 261255Z 26009KT 230V300 9999 -RADZ FEW005 SCT015 14/12 Q0996 TEMPO 7000 -SHRA FEW018TCU

EHAM Flight Activity (Flightaware)

Listeners: 2 out of 1855 total

Amsterdam Arrival : 118.400

EHAM Arrival (Secondary)
Amsterdam, Netherlands

Feed Status: DOWN
Offline since: 2022-03-10 11:40:38 UTC

EHAM 261255Z 26009KT 230V300 9999 -RADZ FEW005 SCT015 14/12 Q0996 TEMPO 7000 -SHRA FEW018TCU

Amsterdam Arrival (Secondary): 131.150

EHAM Arrival (Secondary/Backup)
Amsterdam, Netherlands

Feed Status: DOWN
Offline since: 2022-03-10 10:29:38 UTC

EHAM 261255Z 26009KT 230V300 9999 -RADZ FEW005 SCT015 14/12 Q0996 TEMPO 7000 -SHRA FEW018TCU

Amsterdam Arrival (Secondary Backup): 131.275

EHAM Arrival Backup/Discrete (Archives)
Amsterdam, Netherlands

Feed Status: UP
Listen in your browser - HTML5 player(in browser, HTML5)
Click here to listen with your own player(launches your MP3 player)

EHAM 261255Z 26009KT 230V300 9999 -RADZ FEW005 SCT015 14/12 Q0996 TEMPO 7000 -SHRA FEW018TCU

EHAM Flight Activity (Flightaware)

Listeners: 0 out of 1855 total

Schiphol Arrival Backup: 126.675

EHAM ATIS (Arrival)
Amsterdam, Netherlands

Feed Status: DOWN
Offline since: 2022-03-10 10:29:38 UTC

EHAM 261255Z 26009KT 230V300 9999 -RADZ FEW005 SCT015 14/12 Q0996 TEMPO 7000 -SHRA FEW018TCU

Schiphol ATIS (Arrival): 132.980

EHAM ATIS (Departure) (Archives)
Amsterdam, Netherlands

Feed Status: UP
Listen in your browser - HTML5 player(in browser, HTML5)
Click here to listen with your own player(launches your MP3 player)

EHAM 261255Z 26009KT 230V300 9999 -RADZ FEW005 SCT015 14/12 Q0996 TEMPO 7000 -SHRA FEW018TCU

EHAM Flight Activity (Flightaware)

Listeners: 0 out of 1855 total

Schiphol ATIS (Departure): 122.205

EHAM Clearance Delivery (Archives)
Amsterdam, Netherlands

Feed Status: UP
Listen in your browser - HTML5 player(in browser, HTML5)
Click here to listen with your own player(launches your MP3 player)

EHAM 261255Z 26009KT 230V300 9999 -RADZ FEW005 SCT015 14/12 Q0996 TEMPO 7000 -SHRA FEW018TCU

EHAM Flight Activity (Flightaware)

Listeners: 1 out of 1855 total

Schiphol Clearance Delivery: 121.980

EHAM Ground (Backup) (Archives)
Amsterdam, Netherlands

Feed Status: UP
Listen in your browser - HTML5 player(in browser, HTML5)
Click here to listen with your own player(launches your MP3 player)

EHAM 261255Z 26009KT 230V300 9999 -RADZ FEW005 SCT015 14/12 Q0996 TEMPO 7000 -SHRA FEW018TCU

EHAM Flight Activity (Flightaware)

Listeners: 0 out of 1855 total

Schiphol Ground (Backup): 122.425

EHAM Ground (North) (Archives)
Amsterdam, Netherlands

Feed Status: UP
Listen in your browser - HTML5 player(in browser, HTML5)
Click here to listen with your own player(launches your MP3 player)

EHAM 261255Z 26009KT 230V300 9999 -RADZ FEW005 SCT015 14/12 Q0996 TEMPO 7000 -SHRA FEW018TCU

EHAM Flight Activity (Flightaware)

Listeners: 0 out of 1855 total

Schiphol Ground (North): 121.805

EHAM Ground (South) (Archives)
Amsterdam, Netherlands

Feed Status: UP
Listen in your browser - HTML5 player(in browser, HTML5)
Click here to listen with your own player(launches your MP3 player)

EHAM 261255Z 26009KT 230V300 9999 -RADZ FEW005 SCT015 14/12 Q0996 TEMPO 7000 -SHRA FEW018TCU

EHAM Flight Activity (Flightaware)

Listeners: 0 out of 1855 total

Schiphol Ground (South): 121.705

EHAM Ground (West) (Archives)
Amsterdam, Netherlands

Feed Status: UP
Listen in your browser - HTML5 player(in browser, HTML5)
Click here to listen with your own player(launches your MP3 player)

EHAM 261255Z 26009KT 230V300 9999 -RADZ FEW005 SCT015 14/12 Q0996 TEMPO 7000 -SHRA FEW018TCU

EHAM Flight Activity (Flightaware)

Listeners: 0 out of 1855 total

Schiphol Ground (West): 121.560

EHAM Info North Sea (North) (Archives)
Amsterdam, Netherlands

Feed Status: UP
Listen in your browser - HTML5 player(in browser, HTML5)
Click here to listen with your own player(launches your MP3 player)

EHAM 261255Z 26009KT 230V300 9999 -RADZ FEW005 SCT015 14/12 Q0996 TEMPO 7000 -SHRA FEW018TCU

EHAM Flight Activity (Flightaware)

Listeners: 0 out of 1855 total

Amsterdam Info North Sea (North): 119.175

EHAM Info North Sea (Over Land) (Archives)
Amsterdam, Netherlands

Feed Status: UP
Listen in your browser - HTML5 player(in browser, HTML5)
Click here to listen with your own player(launches your MP3 player)

EHAM 261255Z 26009KT 230V300 9999 -RADZ FEW005 SCT015 14/12 Q0996 TEMPO 7000 -SHRA FEW018TCU

EHAM Flight Activity (Flightaware)

Listeners: 2 out of 1855 total

Amsterdam Info North Sea (Over Land): 124.300

EHAM Info North Sea (South)
Amsterdam, Netherlands

Feed Status: DOWN
Offline since: 2022-03-10 10:29:38 UTC

EHAM 261255Z 26009KT 230V300 9999 -RADZ FEW005 SCT015 14/12 Q0996 TEMPO 7000 -SHRA FEW018TCU

Amsterdam Info North Sea (South): 136.650

EHAM Schiphol Outbound Planner (Archives)
Amsterdam, Netherlands

Feed Status: UP
Listen in your browser - HTML5 player(in browser, HTML5)
Click here to listen with your own player(launches your MP3 player)

EHAM 261255Z 26009KT 230V300 9999 -RADZ FEW005 SCT015 14/12 Q0996 TEMPO 7000 -SHRA FEW018TCU

EHAM Flight Activity (Flightaware)

Listeners: 0 out of 1855 total

Schiphol Outbound Planner: 121.655

EHAM Tow Traffic
Amsterdam, Netherlands

Feed Status: DOWN
Offline since: 2022-03-10 10:29:38 UTC

EHAM 261255Z 26009KT 230V300 9999 -RADZ FEW005 SCT015 14/12 Q0996 TEMPO 7000 -SHRA FEW018TCU

Schiphol Tow Traffic: 134.875

EHAM Tower (06/24) (Archives)
Amsterdam, Netherlands

Feed Status: UP
Listen in your browser - HTML5 player(in browser, HTML5)
Click here to listen with your own player(launches your MP3 player)

EHAM 261255Z 26009KT 230V300 9999 -RADZ FEW005 SCT015 14/12 Q0996 TEMPO 7000 -SHRA FEW018TCU

EHAM Flight Activity (Flightaware)

Listeners: 1 out of 1855 total

Schiphol Tower Main 06/24: 135.110

EHAM Tower (18C/36C-27/09) (Archives)
Amsterdam, Netherlands

Feed Status: UP
Listen in your browser - HTML5 player(in browser, HTML5)
Click here to listen with your own player(launches your MP3 player)

EHAM 261255Z 26009KT 230V300 9999 -RADZ FEW005 SCT015 14/12 Q0996 TEMPO 7000 -SHRA FEW018TCU

EHAM Flight Activity (Flightaware)

Listeners: 0 out of 1855 total

Schiphol Tower Main 18C/36C - 27/09: 118.100

EHAM Tower (18L/36R-22/04) (Archives)
Amsterdam, Netherlands

Feed Status: UP
Listen in your browser - HTML5 player(in browser, HTML5)
Click here to listen with your own player(launches your MP3 player)

EHAM 261255Z 26009KT 230V300 9999 -RADZ FEW005 SCT015 14/12 Q0996 TEMPO 7000 -SHRA FEW018TCU

EHAM Flight Activity (Flightaware)

Listeners: 4 out of 1855 total

Schiphol Tower Main 18L/36R - 22/04: 119.225

EHAM Tower Backup (Archives)
Amsterdam, Netherlands

Feed Status: UP
Listen in your browser - HTML5 player(in browser, HTML5)
Click here to listen with your own player(launches your MP3 player)

EHAM 261255Z 26009KT 230V300 9999 -RADZ FEW005 SCT015 14/12 Q0996 TEMPO 7000 -SHRA FEW018TCU

EHAM Flight Activity (Flightaware)

Listeners: 0 out of 1855 total

Schiphol Tower Backup: 119.905

EHAM Tower West (18R/36L) (Archives)
Amsterdam, Netherlands

Feed Status: UP
Listen in your browser - HTML5 player(in browser, HTML5)
Click here to listen with your own player(launches your MP3 player)

EHAM 261255Z 26009KT 230V300 9999 -RADZ FEW005 SCT015 14/12 Q0996 TEMPO 7000 -SHRA FEW018TCU

EHAM Flight Activity (Flightaware)

Listeners: 0 out of 1855 total

Schiphol Tower West 18R/36L: 118.280

EHBK ATIS (Archives)
Beek, Netherlands

Feed Status: UP
Listen in your browser - HTML5 player(in browser, HTML5)
Click here to listen with your own player(launches your MP3 player)

EHBK 261255Z AUTO 21018KT 180V240 9999 -RA FEW019 SCT027 BKN043 12/10 Q1000 REDZRA TEMPO 7000 RA

EHBK Flight Activity (Flightaware)

Listeners: 0 out of 1855 total

Beek ATIS: 124.575

EHBK Gnd/Twr/App (Archives)
Beek, Netherlands

Feed Status: UP
Listen in your browser - HTML5 player(in browser, HTML5)
Click here to listen with your own player(launches your MP3 player)

EHBK 261255Z AUTO 21018KT 180V240 9999 -RA FEW019 SCT027 BKN043 12/10 Q1000 REDZRA TEMPO 7000 RA

EHBK Flight Activity (Flightaware)

Listeners: 1 out of 1855 total

Beek Approach: 120.200
Beek Approach: 123.975
Beek Ground: 121.825
Beek Tower: 119.475
Beek Tower: 119.700

MUAC/Eurocontrol Delta High (Archives)
Beek, Netherlands

Feed Status: UP
Listen in your browser - HTML5 player(in browser, HTML5)
Click here to listen with your own player(launches your MP3 player)

EHBK 261255Z AUTO 21018KT 180V240 9999 -RA FEW019 SCT027 BKN043 12/10 Q1000 REDZRA TEMPO 7000 RA

EHBK Flight Activity (Flightaware)

Listeners: 0 out of 1855 total

MUAC Delta High Sector: 132.085

MUAC/Eurocontrol Koksy (Archives)
Beek, Netherlands

Feed Status: UP
Listen in your browser - HTML5 player(in browser, HTML5)
Click here to listen with your own player(launches your MP3 player)

EHBK 261255Z AUTO 21018KT 180V240 9999 -RA FEW019 SCT027 BKN043 12/10 Q1000 REDZRA TEMPO 7000 RA

EHBK Flight Activity (Flightaware)

Listeners: 0 out of 1855 total

MUAC Koksy Sector: 132.205

MUAC/Eurocontrol Koksy High (Archives)
Beek, Netherlands

Feed Status: UP
Listen in your browser - HTML5 player(in browser, HTML5)
Click here to listen with your own player(launches your MP3 player)

EHBK 261255Z AUTO 21018KT 180V240 9999 -RA FEW019 SCT027 BKN043 12/10 Q1000 REDZRA TEMPO 7000 RA

EHBK Flight Activity (Flightaware)

Listeners: 0 out of 1855 total

MUAC Koksy High Sector: 132.755

MUAC/Eurocontrol Lux High (Archives)
Beek, Netherlands

Feed Status: UP
Listen in your browser - HTML5 player(in browser, HTML5)
Click here to listen with your own player(launches your MP3 player)

EHBK 261255Z AUTO 21018KT 180V240 9999 -RA FEW019 SCT027 BKN043 12/10 Q1000 REDZRA TEMPO 7000 RA

EHBK Flight Activity (Flightaware)

Listeners: 1 out of 1855 total

MUAC Lux High Sector: 132.315

MUAC/Eurocontrol Lux Low (Archives)
Beek, Netherlands

Feed Status: UP
Listen in your browser - HTML5 player(in browser, HTML5)
Click here to listen with your own player(launches your MP3 player)

EHBK 261255Z AUTO 21018KT 180V240 9999 -RA FEW019 SCT027 BKN043 12/10 Q1000 REDZRA TEMPO 7000 RA

EHBK Flight Activity (Flightaware)

Listeners: 1 out of 1855 total

MUAC Lux Low Sector: 133.355

MUAC/Eurocontrol Olno Low (Archives)
Beek, Netherlands

Feed Status: UP
Listen in your browser - HTML5 player(in browser, HTML5)
Click here to listen with your own player(launches your MP3 player)

EHBK 261255Z AUTO 21018KT 180V240 9999 -RA FEW019 SCT027 BKN043 12/10 Q1000 REDZRA TEMPO 7000 RA

EHBK Flight Activity (Flightaware)

Listeners: 0 out of 1855 total

MUAC Olno Low Sector: 132.855

MUAC/Eurocontrol Ruhr (Archives)
Beek, Netherlands

Feed Status: UP
Listen in your browser - HTML5 player(in browser, HTML5)
Click here to listen with your own player(launches your MP3 player)

EHBK 261255Z AUTO 21018KT 180V240 9999 -RA FEW019 SCT027 BKN043 12/10 Q1000 REDZRA TEMPO 7000 RA

EHBK Flight Activity (Flightaware)

Listeners: 0 out of 1855 total

MUAC Ruhr Sector: 124.425

EHEH Approach #1 (Archives)
Eindhoven, Netherlands

Feed Status: UP
Listen in your browser - HTML5 player(in browser, HTML5)
Click here to listen with your own player(launches your MP3 player)

EHEH 261255Z AUTO 21016KT 180V250 6000 -RADZ FEW007 SCT008 BKN010 12/11 Q0998 GRN TEMPO 21014G24KT 2500 RADZ FEW006 BKN007 BKN010

EHEH Flight Activity (Flightaware)

Listeners: 4 out of 1855 total

DutchMil Info: 132.355
DutchMil Info UHF: 341.600
DutchMil RAPCON South: 123.180
Eindhoven Arrival: 125.530
Eindhoven Arrival (UHF): 265.975
Emergency/Guard: 121.500
Rapcon South UHF: 388.525
Volkel Arrival UHF: 291.200

EHEH Tower #1 (Archives)
Eindhoven, Netherlands

Feed Status: UP
Listen in your browser - HTML5 player(in browser, HTML5)
Click here to listen with your own player(launches your MP3 player)

EHEH 261255Z AUTO 21016KT 180V250 6000 -RADZ FEW007 SCT008 BKN010 12/11 Q0998 GRN TEMPO 21014G24KT 2500 RADZ FEW006 BKN007 BKN010

EHEH Flight Activity (Flightaware)

Listeners: 5 out of 1855 total

Eindhoven Tower: 131.005
Eindhoven Tower (UHF): 241.550
Generic Tower: 122.100
Generic Tower (UHF): 257.800
Volkel Tower: 136.080
Volkel Tower (UHF): 291.100

EHGG Approach (Archives)
Groningen, Netherlands

Feed Status: UP
Listen in your browser - HTML5 player(in browser, HTML5)
Click here to listen with your own player(launches your MP3 player)

EHGG 261255Z AUTO 20014KT 170V230 5000 -RADZ FEW006 SCT007 BKN008 12/11 Q0995 REDZRA TEMPO 4000 DZRA

EHGG Flight Activity (Flightaware)

Listeners: 0 out of 1855 total

Eelde Approach: 120.305

EHGG ATIS (Archives)
Groningen, Netherlands

Feed Status: UP
Listen in your browser - HTML5 player(in browser, HTML5)
Click here to listen with your own player(launches your MP3 player)

EHGG 261255Z AUTO 20014KT 170V230 5000 -RADZ FEW006 SCT007 BKN008 12/11 Q0995 REDZRA TEMPO 4000 DZRA

EHGG Flight Activity (Flightaware)

Listeners: 0 out of 1855 total

Groningen ATIS: 133.555

EHGG Ground (Archives)
Groningen, Netherlands

Feed Status: UP
Listen in your browser - HTML5 player(in browser, HTML5)
Click here to listen with your own player(launches your MP3 player)

EHGG 261255Z AUTO 20014KT 170V230 5000 -RADZ FEW006 SCT007 BKN008 12/11 Q0995 REDZRA TEMPO 4000 DZRA

EHGG Flight Activity (Flightaware)

Listeners: 0 out of 1855 total

Eelde Clearance Delivery/Ground: 121.705

EHGG Guard/Emergency (Archives)
Groningen, Netherlands

Feed Status: UP
Listen in your browser - HTML5 player(in browser, HTML5)
Click here to listen with your own player(launches your MP3 player)

EHGG 261255Z AUTO 20014KT 170V230 5000 -RADZ FEW006 SCT007 BKN008 12/11 Q0995 REDZRA TEMPO 4000 DZRA

EHGG Flight Activity (Flightaware)

Listeners: 0 out of 1855 total

Emergency/Guard: 121.500

EHGG Tower (Archives)
Groningen, Netherlands

Feed Status: UP
Listen in your browser - HTML5 player(in browser, HTML5)
Click here to listen with your own player(launches your MP3 player)

EHGG 261255Z AUTO 20014KT 170V230 5000 -RADZ FEW006 SCT007 BKN008 12/11 Q0995 REDZRA TEMPO 4000 DZRA

EHGG Flight Activity (Flightaware)

Listeners: 4 out of 1855 total

Eelde Tower: 118.705

EHGG Twr/App (Secondary) (Archives)
Groningen, Netherlands

Feed Status: UP
Listen in your browser - HTML5 player(in browser, HTML5)
Click here to listen with your own player(launches your MP3 player)

EHGG 261255Z AUTO 20014KT 170V230 5000 -RADZ FEW006 SCT007 BKN008 12/11 Q0995 REDZRA TEMPO 4000 DZRA

EHGG Flight Activity (Flightaware)

Listeners: 0 out of 1855 total

Eelde Tower/App (Backup): 119.705

MUAC/Eurocontrol (EHGG Area) (Archives)
Groningen, Netherlands

Feed Status: UP
Listen in your browser - HTML5 player(in browser, HTML5)
Click here to listen with your own player(launches your MP3 player)

EHGG 261255Z AUTO 20014KT 170V230 5000 -RADZ FEW006 SCT007 BKN008 12/11 Q0995 REDZRA TEMPO 4000 DZRA

EHGG Flight Activity (Flightaware)

Listeners: 1 out of 1855 total

MUAC Holstein High Sector: 132.775
MUAC Holstein Sector: 120.9333
MUAC Javer High Sector: 134.700
MUAC Jever Sector: 136.4666

EHGR Ground (Archives)
Breda, Netherlands

Feed Status: UP
Listen in your browser - HTML5 player(in browser, HTML5)
Click here to listen with your own player(launches your MP3 player)

EHGR 261255Z AUTO 21010KT 170V270 3300 +DZ FEW005 BKN007 BKN009 12/11 Q0998 YLO

EHGR Flight Activity (Flightaware)

Listeners: 0 out of 1855 total

Gilze Rijen Ground: 121.680

EHGR Ground/Tower (Archives)
Breda, Netherlands

Feed Status: UP
Listen in your browser - HTML5 player(in browser, HTML5)
Click here to listen with your own player(launches your MP3 player)

EHGR 261255Z AUTO 21010KT 170V270 3300 +DZ FEW005 BKN007 BKN009 12/11 Q0998 YLO

EHGR Flight Activity (Flightaware)

Listeners: 0 out of 1855 total

Gilze Rijen Ground: 121.680
Gilze Rijen Tower: 125.330

EHGR Tower (Archives)
Breda, Netherlands

Feed Status: UP
Listen in your browser - HTML5 player(in browser, HTML5)
Click here to listen with your own player(launches your MP3 player)

EHGR 261255Z AUTO 21010KT 170V270 3300 +DZ FEW005 BKN007 BKN009 12/11 Q0998 YLO

EHGR Flight Activity (Flightaware)

Listeners: 0 out of 1855 total

Gilze Rijen Tower: 125.330

EHHV CTAF (Archives)
Hilversum, Netherlands

Feed Status: UP
Listen in your browser - HTML5 player(in browser, HTML5)
Click here to listen with your own player(launches your MP3 player)

EHHV Flight Activity (Flightaware)

Listeners: 1 out of 1855 total

Hilversum Radio: 131.030

EHKD ATIS (Archives)
Den Helder, Netherlands

Feed Status: UP
Listen in your browser - HTML5 player(in browser, HTML5)
Click here to listen with your own player(launches your MP3 player)

EHKD 261255Z AUTO 28011KT 240V310 9999 SCT052 BKN059 BKN065 16/10 Q0995 BLU TEMPO 4000 SHRA SCT007 SCT020CB BKN030

EHKD Flight Activity (Flightaware)

Listeners: 0 out of 1855 total

De Kooy ATIS: 133.015

EHKD Ground/Tower (Archives)
Den Helder, Netherlands

Feed Status: UP
Listen in your browser - HTML5 player(in browser, HTML5)
Click here to listen with your own player(launches your MP3 player)

EHKD 261255Z AUTO 28011KT 240V310 9999 SCT052 BKN059 BKN065 16/10 Q0995 BLU TEMPO 4000 SHRA SCT007 SCT020CB BKN030

EHKD Flight Activity (Flightaware)

Listeners: 0 out of 1855 total

De Kooy Ground: 121.730
De Kooy Tower: 120.130

Approach/Dutch Mil Radar (Archives)
Lelystad, Netherlands

Feed Status: UP
Listen in your browser - HTML5 player(in browser, HTML5)
Click here to listen with your own player(launches your MP3 player)

EHLE 261255Z AUTO 21010KT 170V240 9999 FEW006 BKN007 BKN008 13/12 Q0996 REDZ TEMPO 4000 RADZ

EHLE Flight Activity (Flightaware)

Listeners: 2 out of 1855 total

Approach: 124.530
Dutch Mil Flight Info: 264.325
Dutch Mil Radar: 128.355
Dutch Mil Radar: 132.350

EHLE App/Dep (Archives)
Lelystad, Netherlands

Feed Status: UP
Listen in your browser - HTML5 player(in browser, HTML5)
Click here to listen with your own player(launches your MP3 player)

EHLE 261255Z AUTO 21010KT 170V240 9999 FEW006 BKN007 BKN008 13/12 Q0996 REDZ TEMPO 4000 RADZ

EHLE Flight Activity (Flightaware)

Listeners: 0 out of 1855 total

Lelystad Approach: 134.530

EHLE Clearance Delivery (Archives)
Lelystad, Netherlands

Feed Status: UP
Listen in your browser - HTML5 player(in browser, HTML5)
Click here to listen with your own player(launches your MP3 player)

EHLE 261255Z AUTO 21010KT 170V240 9999 FEW006 BKN007 BKN008 13/12 Q0996 REDZ TEMPO 4000 RADZ

EHLE Flight Activity (Flightaware)

Listeners: 0 out of 1855 total

Lelystad Clearance Delivery: 123.680

EHLE FIC (Archives)
Lelystad, Netherlands

Feed Status: UP
Listen in your browser - HTML5 player(in browser, HTML5)
Click here to listen with your own player(launches your MP3 player)

EHLE 261255Z AUTO 21010KT 170V240 9999 FEW006 BKN007 BKN008 13/12 Q0996 REDZ TEMPO 4000 RADZ

EHLE Flight Activity (Flightaware)

Listeners: 0 out of 1855 total

FIC Amsterdam Information: 124.300

EHLE Tower (Archives)
Lelystad, Netherlands

Feed Status: UP
Listen in your browser - HTML5 player(in browser, HTML5)
Click here to listen with your own player(launches your MP3 player)

EHLE 261255Z AUTO 21010KT 170V240 9999 FEW006 BKN007 BKN008 13/12 Q0996 REDZ TEMPO 4000 RADZ

EHLE Flight Activity (Flightaware)

Listeners: 0 out of 1855 total

Lelystad Tower: 135.180
Lelystad Tower: 123.830

EHMM CTAF (Archives)
Middenmeer, Netherlands

Feed Status: UP
Listen in your browser - HTML5 player(in browser, HTML5)
Click here to listen with your own player(launches your MP3 player)

EHMM Flight Activity (Flightaware)

Listeners: 0 out of 1855 total

Middenmeer CTAF: 123.425

EHMZ (Archives)
Middelburg, Netherlands

Feed Status: UP
Listen in your browser - HTML5 player(in browser, HTML5)
Click here to listen with your own player(launches your MP3 player)

EHMZ Flight Activity (Flightaware)

Listeners: 1 out of 1855 total

Midden-Zeeland Radio: 119.255

EHRD Approach (Archives)
Rotterdam, Netherlands

Feed Status: UP
Listen in your browser - HTML5 player(in browser, HTML5)
Click here to listen with your own player(launches your MP3 player)

EHRD 261255Z AUTO 22008KT 190V250 9999 -RA NSC 14/13 Q0996 BECMG 26010KT TEMPO 6000 -SHRA FEW015TCU

EHRD Flight Activity (Flightaware)

Listeners: 1 out of 1855 total

Rotterdam Approach: 122.990
Rotterdam Approach: 124.535
Rotterdam Approach: 281.050

EHRD Clearance Delivery (Archives)
Rotterdam, Netherlands

Feed Status: UP
Listen in your browser - HTML5 player(in browser, HTML5)
Click here to listen with your own player(launches your MP3 player)

EHRD 261255Z AUTO 22008KT 190V250 9999 -RA NSC 14/13 Q0996 BECMG 26010KT TEMPO 6000 -SHRA FEW015TCU

EHRD Flight Activity (Flightaware)

Listeners: 1 out of 1855 total

Rotterdam Del/Gnd: 122.180

EHRD Del/Twr (Archives)
Rotterdam, Netherlands

Feed Status: UP
Listen in your browser - HTML5 player(in browser, HTML5)
Click here to listen with your own player(launches your MP3 player)

EHRD 261255Z AUTO 22008KT 190V250 9999 -RA NSC 14/13 Q0996 BECMG 26010KT TEMPO 6000 -SHRA FEW015TCU

EHRD Flight Activity (Flightaware)

Listeners: 1 out of 1855 total

Rotterdam Del/Gnd: 122.180
Rotterdam Tower: 118.205

EHRD Gnd/Twr/App (Archives)
Rotterdam, Netherlands

Feed Status: UP
Listen in your browser - HTML5 player(in browser, HTML5)
Click here to listen with your own player(launches your MP3 player)

EHRD 261255Z AUTO 22008KT 190V250 9999 -RA NSC 14/13 Q0996 BECMG 26010KT TEMPO 6000 -SHRA FEW015TCU

EHRD Flight Activity (Flightaware)

Listeners: 2 out of 1855 total

Adam Info: 124.300
Regional Guard: 119.705
Rotterdam Approach: 127.025
Rotterdam Del/Gnd: 122.180
Rotterdam Tower: 118.205
SAR: 123.100
SAR: 282.800

EHRD Tower (Archives)
Rotterdam, Netherlands

Feed Status: UP
Listen in your browser - HTML5 player(in browser, HTML5)
Click here to listen with your own player(launches your MP3 player)

EHRD 261255Z AUTO 22008KT 190V250 9999 -RA NSC 14/13 Q0996 BECMG 26010KT TEMPO 6000 -SHRA FEW015TCU

EHRD Flight Activity (Flightaware)

Listeners: 1 out of 1855 total

Rotterdam Tower: 118.205
Rotterdam Tower: 362.300

EHRD Twr/App
Rotterdam, Netherlands

Feed Status: DOWN
Offline since: 2020-03-14 14:15:39 UTC

EHRD 261255Z AUTO 22008KT 190V250 9999 -RA NSC 14/13 Q0996 BECMG 26010KT TEMPO 6000 -SHRA FEW015TCU

Rotterdam Approach: 127.025
Rotterdam Tower: 118.205

EHTX Gnd/Twr
Texel, Netherlands

Feed Status: DOWN
Offline since: 2021-06-08 14:20:38 UTC

Texel Radio (Ground/Tower): 119.300

EHVL CTAF/Range Control
Vlieland, Netherlands

Feed Status: DOWN
Offline since: 2021-06-08 14:20:38 UTC

EHVL 261255Z AUTO 28018KT 9999 FEW025 BKN250 16/11 Q0994 BLU

Cornfield VHF (CTAF): 122.100
Range Controller (Primary): 291.650
Range Controller (Secondary): 370.300
Range Controller VHF: 138.075

EICK Approach/Departure (Archives)
Cork, Ireland

Feed Status: UP
Listen in your browser - HTML5 player(in browser, HTML5)
Click here to listen with your own player(launches your MP3 player)

EICK 261230Z 32024G35KT 9999 BKN034 SCT049 14/06 Q1012 NOSIG

EICK Flight Activity (Flightaware)

Listeners: 0 out of 1855 total

Cork Approach: 119.900

EICK Gnd/Twr/App/Dep (Archives)
Cork, Ireland

Feed Status: UP
Listen in your browser - HTML5 player(in browser, HTML5)
Click here to listen with your own player(launches your MP3 player)

EICK 261230Z 32024G35KT 9999 BKN034 SCT049 14/06 Q1012 NOSIG

EICK Flight Activity (Flightaware)

Listeners: 2 out of 1855 total

Cork Approach: 119.900
Cork Ground: 121.850
Cork Tower: 119.300

EICK Ground/Tower (Archives)
Cork, Ireland

Feed Status: UP
Listen in your browser - HTML5 player(in browser, HTML5)
Click here to listen with your own player(launches your MP3 player)

EICK 261230Z 32024G35KT 9999 BKN034 SCT049 14/06 Q1012 NOSIG

EICK Flight Activity (Flightaware)

Listeners: 0 out of 1855 total

Cork Ground: 121.850
Cork Tower: 119.300

EIDW Approach (Archives)
Dublin, Ireland

Feed Status: UP
Listen in your browser - HTML5 player(in browser, HTML5)
Click here to listen with your own player(launches your MP3 player)

EIDW 261230Z 31022KT 9999 FEW022 SCT034 14/08 Q1008 NOSIG

EIDW Flight Activity (Flightaware)

Listeners: 5 out of 1855 total

Dublin Approach: 121.100

EIDW Approach (Final) (Archives)
Dublin, Ireland

Feed Status: UP
Listen in your browser - HTML5 player(in browser, HTML5)
Click here to listen with your own player(launches your MP3 player)

EIDW 261230Z 31022KT 9999 FEW022 SCT034 14/08 Q1008 NOSIG

EIDW Flight Activity (Flightaware)

Listeners: 0 out of 1855 total

Dublin Approach (Final): 119.930

EIDW Clearance Delivery (Archives)
Dublin, Ireland

Feed Status: UP
Listen in your browser - HTML5 player(in browser, HTML5)
Click here to listen with your own player(launches your MP3 player)

EIDW 261230Z 31022KT 9999 FEW022 SCT034 14/08 Q1008 NOSIG

EIDW Flight Activity (Flightaware)

Listeners: 2 out of 1855 total

Dublin Clearance Delivery: 121.875

EIDW Del/Gnd/Twr/App/Center (Archives)
Dublin, Ireland

Feed Status: UP
Listen in your browser - HTML5 player(in browser, HTML5)
Click here to listen with your own player(launches your MP3 player)

EIDW 261230Z 31022KT 9999 FEW022 SCT034 14/08 Q1008 NOSIG

EIDW Flight Activity (Flightaware)

Listeners: 15 out of 1855 total

Dublin Approach: 121.100
Dublin Approach (backup): 119.555
Dublin Centre North: 129.175
Dublin Centre South: 126.250
Dublin Clearance Delivery: 121.875
Dublin FIS: 118.500
Dublin Ground: 121.800
Dublin Tower: 118.600

EIDW Dublin Center (Archives)
Dublin, Ireland

Feed Status: UP
Listen in your browser - HTML5 player(in browser, HTML5)
Click here to listen with your own player(launches your MP3 player)

EIDW 261230Z 31022KT 9999 FEW022 SCT034 14/08 Q1008 NOSIG

EIDW Flight Activity (Flightaware)

Listeners: 0 out of 1855 total

Dublin Center: 120.755

EIDW Ground (Archives)
Dublin, Ireland

Feed Status: UP
Listen in your browser - HTML5 player(in browser, HTML5)
Click here to listen with your own player(launches your MP3 player)

EIDW 261230Z 31022KT 9999 FEW022 SCT034 14/08 Q1008 NOSIG

EIDW Flight Activity (Flightaware)

Listeners: 1 out of 1855 total

Dublin Ground: 121.800

EIDW Tower #1 (Archives)
Dublin, Ireland

Feed Status: UP
Listen in your browser - HTML5 player(in browser, HTML5)
Click here to listen with your own player(launches your MP3 player)

EIDW 261230Z 31022KT 9999 FEW022 SCT034 14/08 Q1008 NOSIG

EIDW Flight Activity (Flightaware)

Listeners: 4 out of 1855 total

Dublin Tower: 118.600

EIDW Tower (North) (Archives)
Dublin, Ireland

Feed Status: UP
Listen in your browser - HTML5 player(in browser, HTML5)
Click here to listen with your own player(launches your MP3 player)

EIDW 261230Z 31022KT 9999 FEW022 SCT034 14/08 Q1008 NOSIG

EIDW Flight Activity (Flightaware)

Listeners: 0 out of 1855 total

Dublin Tower (North): 124.680

EIKN Gnd/Twr/App (Archives)
Charlestown, Ireland

Feed Status: UP
Listen in your browser - HTML5 player(in browser, HTML5)
Click here to listen with your own player(launches your MP3 player)

EIKN 261230Z 32016G26KT 290V360 9999 VCSH FEW016 BKN032 BKN120 12/06 Q1011 NOSIG

EIKN Flight Activity (Flightaware)

Listeners: 1 out of 1855 total

Connaught Ground: 121.900
Connaught Tower: 130.700
Shannon Low Level: 119.075

EINN Shannon Control High (East)
Shannon, Ireland

Feed Status: DOWN
Offline since: 2022-09-17 12:31:38 UTC

EINN 261230Z 31016KT 9999 SCT028 BKN040 BKN100 15/08 Q1012 NOSIG

Shannon Clearance (Oceanic only): 121.700
Shannon Control: 134.260
Shannon Control: 134.630
Shannon Control: 135.230
Shannon Control: 135.600
Shannon Control: 136.255
Shannon Control (BABAN/DEVOL Sector): 132.150

EINN Shannon Control High (West/Coastal)
Shannon, Ireland

Feed Status: DOWN
Offline since: 2022-09-17 12:31:38 UTC

EINN 261230Z 31016KT 9999 SCT028 BKN040 BKN100 15/08 Q1012 NOSIG

Shannon Control: 131.150
Shannon Control: 125.880
Shannon Control: 120.040
Shannon Control: 122.980
Shannon Control: 127.130
Shannon Control: 129.665
Shannon Control: 133.360

EINN Shannon Control Low
Shannon, Ireland

Feed Status: DOWN
Offline since: 2022-09-17 12:31:38 UTC

EINN 261230Z 31016KT 9999 SCT028 BKN040 BKN100 15/08 Q1012 NOSIG

Shannon Control (Low): 119.080
Shannon Control Low: 124.700

EINN Twr/App #1 (Archives)
Shannon, Ireland

Feed Status: UP
Listen in your browser - HTML5 player(in browser, HTML5)
Click here to listen with your own player(launches your MP3 player)

EINN 261230Z 31016KT 9999 SCT028 BKN040 BKN100 15/08 Q1012 NOSIG

EINN Flight Activity (Flightaware)

Listeners: 3 out of 1855 total

Aer Lingus Ops: 131.500
Service Air Ops: 131.450
Shannon Approach Radar: 121.400
Shannon Control: Misc
Shannon Ground: 121.800
Shannon Tower: 118.700
Sig Ops (Pre-Clearance): 131.590

ENAL Twr/App (Archives)
Alesund, Norway

Feed Status: UP
Listen in your browser - HTML5 player(in browser, HTML5)
Click here to listen with your own player(launches your MP3 player)

ENAL 261250Z 25009KT 9999 FEW016 SCT022 BKN053 11/08 Q0988

ENAL Flight Activity (Flightaware)

Listeners: 0 out of 1855 total

More Approach: 129.325
More Approach: 119.350
Vigra Tower: 118.100

ENAT Twr/App/Control (Archives)
Alta, Norway

Feed Status: UP
Listen in your browser - HTML5 player(in browser, HTML5)
Click here to listen with your own player(launches your MP3 player)

ENAT 261250Z 14009KT 9999 SCT039 BKN046 08/02 Q1010 RMK WIND 700FT 17011KT

ENAT Flight Activity (Flightaware)

Listeners: 0 out of 1855 total

Alta Tower (to boat, Harbour Channel 12): 156.600
Alta Tower (to vehicle): 462.400
Alta Tower/Approach: 120.400
Norway Control: 126.700

ENBO Approach (Archives)
Bodo, Norway

Feed Status: UP
Listen in your browser - HTML5 player(in browser, HTML5)
Click here to listen with your own player(launches your MP3 player)

ENBO 261250Z 12023G34KT 9999 FEW040 BKN050 13/05 Q0999 TEMPO 11025KT

ENBO Flight Activity (Flightaware)

Listeners: 0 out of 1855 total

Bodo Approach: 119.700

ENBO Tower (Archives)
Bodo, Norway

Feed Status: UP
Listen in your browser - HTML5 player(in browser, HTML5)
Click here to listen with your own player(launches your MP3 player)

ENBO 261250Z 12023G34KT 9999 FEW040 BKN050 13/05 Q0999 TEMPO 11025KT

ENBO Flight Activity (Flightaware)

Listeners: 0 out of 1855 total

Bodo Tower: 118.100

ENCN Tower/Approach (Archives)
Kristiansand, Norway

Feed Status: UP
Listen in your browser - HTML5 player(in browser, HTML5)
Click here to listen with your own player(launches your MP3 player)

ENCN 261250Z 19009KT 9999 VCSH FEW019TCU BKN022 15/11 Q0989

ENCN Flight Activity (Flightaware)

Listeners: 0 out of 1855 total

Kjevik Tower: 118.100
Kjevik Tower/Approach: 119.950

ENGM App/Polaris ACC (Archives)
Honefoss, Norway

Feed Status: UP
Listen in your browser - HTML5 player(in browser, HTML5)
Click here to listen with your own player(launches your MP3 player)

ENEG Flight Activity (Flightaware)

Listeners: 5 out of 1855 total

ENGM Approach (East): 118.475
ENGM Approach (West): 120.450
Polaris ACC Sector 4: 118.875
Polaris ACC Sector 7: 124.775
Polaris ACC Sector 8: 134.350

ENEV Twr/App/ACC (Archives)
Evenes, Norway

Feed Status: UP
Listen in your browser - HTML5 player(in browser, HTML5)
Click here to listen with your own player(launches your MP3 player)

ENEV 261250Z 13017KT 9999 FEW040 SCT140 11/03 Q1004 RMK WIND 1400FT 11020KT

ENEV Flight Activity (Flightaware)

Listeners: 0 out of 1855 total

Evenes Approach: 120.100
Evenes Tower: 118.000
Norway ACC (Bodo Sector 25): 126.450

ENGK Info (Archives)
Arendal, Norway

Feed Status: UP
Listen in your browser - HTML5 player(in browser, HTML5)
Click here to listen with your own player(launches your MP3 player)


ENGK Flight Activity (Flightaware)

Listeners: 0 out of 1855 total

Gullknapp Info: 129.900

ENGM App/Director/Final (Archives)
Oslo, Norway

Feed Status: UP
Listen in your browser - HTML5 player(in browser, HTML5)
Click here to listen with your own player(launches your MP3 player)

ENGM 261250Z 14012KT 9999 -SHRA FEW008 SCT010 OVC012 10/08 Q0993 TEMPO RA BKN015

ENGM Flight Activity (Flightaware)

Listeners: 1 out of 1855 total

Oslo Approach: 120.450
Oslo Approach: 118.475
Oslo Approach (Final): 128.900
Oslo Director: 136.400
Oslo Director: 119.975

ENGM App/Polaris ACC (Archives)
Oslo, Norway

Feed Status: UP
Listen in your browser - HTML5 player(in browser, HTML5)
Click here to listen with your own player(launches your MP3 player)

ENEG Flight Activity (Flightaware)

Listeners: 5 out of 1855 total

ENGM Approach (East): 118.475
ENGM Approach (West): 120.450
Polaris ACC Sector 4: 118.875
Polaris ACC Sector 7: 124.775
Polaris ACC Sector 8: 134.350

ENGM Tower (Archives)
Oslo, Norway

Feed Status: UP
Listen in your browser - HTML5 player(in browser, HTML5)
Click here to listen with your own player(launches your MP3 player)

ENGM 261250Z 14012KT 9999 -SHRA FEW008 SCT010 OVC012 10/08 Q0993 TEMPO RA BKN015

ENGM Flight Activity (Flightaware)

Listeners: 1 out of 1855 total

Oslo Tower (East): 120.100
Oslo Tower (West): 118.300

ENHD Tower (Archives)
Haugesund, Norway

Feed Status: UP
Listen in your browser - HTML5 player(in browser, HTML5)
Click here to listen with your own player(launches your MP3 player)

ENHD 261250Z 30009KT 9999 FEW029 12/08 Q0989

ENHD Flight Activity (Flightaware)

Listeners: 0 out of 1855 total

Karmoy Tower: 120.500

ENJB CTAF (Archives)
Tonsberg, Norway

Feed Status: UP
Listen in your browser - HTML5 player(in browser, HTML5)
Click here to listen with your own player(launches your MP3 player)

ENTO 261250Z 17013KT 090V180 7000 RA SCT006 BKN011 OVC021 12/12 Q0991 TEMPO BKN008

ENTO Flight Activity (Flightaware)

Listeners: 0 out of 1855 total

Jarlsberg CTAF: 122.300

ENLI CTAF (Archives)
Farsund, Norway

Feed Status: UP
Listen in your browser - HTML5 player(in browser, HTML5)
Click here to listen with your own player(launches your MP3 player)

ENLI Flight Activity (Flightaware)

Listeners: 0 out of 1855 total

Lista Traffic/Lista Radio: 126.450

ENOR Sector 8 (Archives)
Moss, Norway

Feed Status: UP
Listen in your browser - HTML5 player(in browser, HTML5)
Click here to listen with your own player(launches your MP3 player)

ENOR Flight Activity (Flightaware)

Listeners: 0 out of 1855 total

Norway Center (FIR) Sector 8: 118.875

ENRY Tower (Archives)
Moss, Norway

Feed Status: UP
Listen in your browser - HTML5 player(in browser, HTML5)
Click here to listen with your own player(launches your MP3 player)

ENRY 261220Z 13013KT 9999 -DZ FEW007 BKN010 11/09 Q0993 TEMPO BKN008

ENRY Flight Activity (Flightaware)

Listeners: 0 out of 1855 total

Rygge Tower: 119.500

ENTC Tower/App
Langnes, Norway

Feed Status: DOWN
Offline since: 2022-09-26 12:24:39 UTC

ENTC 261250Z 20021KT CAVOK 10/03 Q1005 NOSIG RMK WIND 2600FT 17033KT

Langnes Tower: 118.300
Langnes VDF (Approach): 123.750

ENTO App/Dep (Archives)
Sandefjord, Norway

Feed Status: UP
Listen in your browser - HTML5 player(in browser, HTML5)
Click here to listen with your own player(launches your MP3 player)

ENTO 261250Z 17013KT 090V180 7000 RA SCT006 BKN011 OVC021 12/12 Q0991 TEMPO BKN008

ENTO Flight Activity (Flightaware)

Listeners: 0 out of 1855 total

Sandefjord Approach (TMA): 134.050

ENTO Control Sector 4 (Archives)
Sandefjord, Norway

Feed Status: UP
Listen in your browser - HTML5 player(in browser, HTML5)
Click here to listen with your own player(launches your MP3 player)

ENTO 261250Z 17013KT 090V180 7000 RA SCT006 BKN011 OVC021 12/12 Q0991 TEMPO BKN008

ENTO Flight Activity (Flightaware)

Listeners: 0 out of 1855 total

Norway control Sector 4: 118.875

ENTO Tower (Archives)
Sandefjord, Norway

Feed Status: UP
Listen in your browser - HTML5 player(in browser, HTML5)
Click here to listen with your own player(launches your MP3 player)

ENTO 261250Z 17013KT 090V180 7000 RA SCT006 BKN011 OVC021 12/12 Q0991 TEMPO BKN008

ENTO Flight Activity (Flightaware)

Listeners: 1 out of 1855 total

Sandefjord Tower: 118.650

ENTO Tower/App (Archives)
Sandefjord, Norway

Feed Status: UP
Listen in your browser - HTML5 player(in browser, HTML5)
Click here to listen with your own player(launches your MP3 player)

ENTO 261250Z 17013KT 090V180 7000 RA SCT006 BKN011 OVC021 12/12 Q0991 TEMPO BKN008

ENTO Flight Activity (Flightaware)

Listeners: 0 out of 1855 total

ENJB Tonsberg Airport - Jarlsberg - CTAF: 122.300
Farris Approach (TCA): 134.050
Sandefjord Tower: 118.650

ENTO Twr/App (Archives)
Sandefjord, Norway

Feed Status: UP
Listen in your browser - HTML5 player(in browser, HTML5)
Click here to listen with your own player(launches your MP3 player)

ENTO 261250Z 17013KT 090V180 7000 RA SCT006 BKN011 OVC021 12/12 Q0991 TEMPO BKN008

ENTO Flight Activity (Flightaware)

Listeners: 0 out of 1855 total

Sandefjord Approach (TMA): 134.050
Sandefjord Tower: 118.650

ENVA Gnd/Twr/App (Archives)
Trondheim, Norway

Feed Status: UP
Listen in your browser - HTML5 player(in browser, HTML5)
Click here to listen with your own player(launches your MP3 player)

ENVA 261250Z 14017KT 120V180 9999 FEW040 BKN090 14/04 Q0992 TEMPO 16017G27KT RMK WIND 670FT 16025G39KT

ENVA Flight Activity (Flightaware)

Listeners: 4 out of 1855 total

Trondheim Approach: 118.600
Trondheim Ground: 121.600
Trondheim Tower: 119.400

ENZV Gnd/Twr/App (Archives)
Stavanger, Norway

Feed Status: UP
Listen in your browser - HTML5 player(in browser, HTML5)
Click here to listen with your own player(launches your MP3 player)

ENZV 261250Z 29007KT 9999 FEW032CB BKN049 13/08 Q0989

ENZV Flight Activity (Flightaware)

Listeners: 1 out of 1855 total

Sola Approach/Departure: 119.600
Sola Ground: 121.750
Sola Tower: 118.350

EPGD Tower/Approach (Archives)
Gdansk, Poland

Feed Status: UP
Listen in your browser - HTML5 player(in browser, HTML5)
Click here to listen with your own player(launches your MP3 player)

EPGD 261230Z 25007KT 9999 FEW027 15/07 Q1004

EPGD Flight Activity (Flightaware)

Listeners: 0 out of 1855 total

Gdansk Approach: 127.275
Gdansk Tower: 118.100

EPKK Tower/App (Archives)
Krakow, Poland

Feed Status: UP
Listen in your browser - HTML5 player(in browser, HTML5)
Click here to listen with your own player(launches your MP3 player)

EPKK 261230Z VRB01KT 9999 SCT016 BKN046 15/11 Q1006

EPKK Flight Activity (Flightaware)

Listeners: 3 out of 1855 total

Krakow Approach: 121.075
Krakow Approach: 123.255
Krakow Tower: 123.255

EPKR CTAF (Archives)
Krosno, Poland

Feed Status: UP
Listen in your browser - HTML5 player(in browser, HTML5)
Click here to listen with your own player(launches your MP3 player)

EPKR Flight Activity (Flightaware)

Listeners: 0 out of 1855 total

Krosno CTAF: 119.555

EPKT Del/Twr/App (Archives)
Katowice, Poland

Feed Status: UP
Listen in your browser - HTML5 player(in browser, HTML5)
Click here to listen with your own player(launches your MP3 player)

EPKT 261230Z 17009KT 9999 SCT017 BKN028 15/11 Q1005

EPKT Flight Activity (Flightaware)

Listeners: 1 out of 1855 total

Katowice Delivery: 121.800
Katowice Tower: 129.250
Krakow Approach: 135.400
Krakow Approach: 121.075

EPKT Delivery/Approach (Archives)
Katowice, Poland

Feed Status: UP
Listen in your browser - HTML5 player(in browser, HTML5)
Click here to listen with your own player(launches your MP3 player)

EPKT 261230Z 17009KT 9999 SCT017 BKN028 15/11 Q1005

EPKT Flight Activity (Flightaware)

Listeners: 0 out of 1855 total

Katowice Delivery: 121.800
Krakow Approach: 121.075

EPKT Tower/Approach (Archives)
Katowice, Poland

Feed Status: UP
Listen in your browser - HTML5 player(in browser, HTML5)
Click here to listen with your own player(launches your MP3 player)

EPKT 261230Z 17009KT 9999 SCT017 BKN028 15/11 Q1005

EPKT Flight Activity (Flightaware)

Listeners: 0 out of 1855 total

Katowice Tower: 129.250
Krakow Approach: 135.400

EPLL Tower (Archives)
Lodz, Poland

Feed Status: UP
Listen in your browser - HTML5 player(in browser, HTML5)
Click here to listen with your own player(launches your MP3 player)

EPLL 261230Z 15004KT 110V240 9999 SCT025 17/11 Q1005

EPLL Flight Activity (Flightaware)

Listeners: 0 out of 1855 total

Lodz Tower: 124.230

EPLS CTAF/Radio (Archives)
Leszno, Poland

Feed Status: UP
Listen in your browser - HTML5 player(in browser, HTML5)
Click here to listen with your own player(launches your MP3 player)

EPLS Flight Activity (Flightaware)

Listeners: 0 out of 1855 total

Leszno Radio: 122.305

EPPO Twr/App/FIS
Poznan, Poland

Feed Status: DOWN
Offline since: 2022-09-26 04:31:38 UTC

EPPO 261230Z 26007KT 9999 -RA FEW020 OVC043 13/09 Q1005

Poznan Approach: 129.025
Poznan Approach: 127.225
Poznan FIS: 126.300
Poznan Tower: 119.975

EPRZ Del/Twr/EPWW Radar
Jasionka, Poland

Feed Status: DOWN
Offline since: 2022-02-26 08:35:38 UTC

EPRZ 261230Z 12005KT 5000 -RA BR BKN003 OVC011 12/11 Q1006

EPWW Radar: 134.175
EPWW Radar: 120.950
Rzeszow Delivery: 121.800
Rzeszow Tower: 126.800

EPWA Approach #1 (Archives)
Warsaw, Poland

Feed Status: UP
Listen in your browser - HTML5 player(in browser, HTML5)
Click here to listen with your own player(launches your MP3 player)

EPWA 261230Z 15006KT 120V180 9999 FEW034 17/10 Q1005 NOSIG

EPWA Flight Activity (Flightaware)

Listeners: 6 out of 1855 total

Warsaw Approach: 128.805

EPWA Approach #2 (Archives)
Warsaw, Poland

Feed Status: UP
Listen in your browser - HTML5 player(in browser, HTML5)
Click here to listen with your own player(launches your MP3 player)

EPWA 261230Z 15006KT 120V180 9999 FEW034 17/10 Q1005 NOSIG

EPWA Flight Activity (Flightaware)

Listeners: 1 out of 1855 total

Warsaw Approach: 125.055

EPWA Ground (Archives)
Warsaw, Poland

Feed Status: UP
Listen in your browser - HTML5 player(in browser, HTML5)
Click here to listen with your own player(launches your MP3 player)

EPWA 261230Z 15006KT 120V180 9999 FEW034 17/10 Q1005 NOSIG

EPWA Flight Activity (Flightaware)

Listeners: 1 out of 1855 total

Warsaw Ground: 121.900

EPWA Tower (Archives)
Warsaw, Poland

Feed Status: UP
Listen in your browser - HTML5 player(in browser, HTML5)
Click here to listen with your own player(launches your MP3 player)

EPWA 261230Z 15006KT 120V180 9999 FEW034 17/10 Q1005 NOSIG

EPWA Flight Activity (Flightaware)

Listeners: 3 out of 1855 total

Warsaw Tower: 118.300

EPWR Twr/App (Archives)
Wroclaw, Poland

Feed Status: UP
Listen in your browser - HTML5 player(in browser, HTML5)
Click here to listen with your own player(launches your MP3 player)

EPPO 261230Z 26007KT 9999 -RA FEW020 OVC043 13/09 Q1005

EPPO Flight Activity (Flightaware)

Listeners: 0 out of 1855 total

Poznan Approach (South): 127.225

EPRZ Del/Twr/EPWW Radar
Jasionka, Poland

Feed Status: DOWN
Offline since: 2022-02-26 08:35:38 UTC

EPRZ 261230Z 12005KT 5000 -RA BR BKN003 OVC011 12/11 Q1006

EPWW Radar: 134.175
EPWW Radar: 120.950
Rzeszow Delivery: 121.800
Rzeszow Tower: 126.800

ESMQ Tower (Archives)
Kalmar, Sweden

Feed Status: UP
Listen in your browser - HTML5 player(in browser, HTML5)
Click here to listen with your own player(launches your MP3 player)

ESMQ 261250Z 17011KT 9999 FEW029 SCT034 BKN042 14/10 Q1000

ESMQ Flight Activity (Flightaware)

Listeners: 1 out of 1855 total

Kalmar Tower: 130.805

ESMS Radar (Archives)
Svedala, Sweden

Feed Status: UP
Listen in your browser - HTML5 player(in browser, HTML5)
Click here to listen with your own player(launches your MP3 player)

ESMS 261250Z 20014KT 9999 FEW020 SCT028 13/09 Q0999

ESMS Flight Activity (Flightaware)

Listeners: 2 out of 1855 total

Sweden Control (Sector L, Malmo): 134.980

ESMS Tower (Archives)
Svedala, Sweden

Feed Status: UP
Listen in your browser - HTML5 player(in browser, HTML5)
Click here to listen with your own player(launches your MP3 player)

ESMS 261250Z 20014KT 9999 FEW020 SCT028 13/09 Q0999

ESMS Flight Activity (Flightaware)

Listeners: 1 out of 1855 total

Malmo Tower: 118.800

ESOE Tower/Control (Archives)
Orebro, Sweden

Feed Status: UP
Listen in your browser - HTML5 player(in browser, HTML5)
Click here to listen with your own player(launches your MP3 player)

ESOE 261250Z 18005KT CAVOK 14/08 Q0998

ESOE Flight Activity (Flightaware)

Listeners: 0 out of 1855 total

Orebro Tower: 120.275
Orebro Tower: 120.280
Sweden Control: 131.125
Sweden Control (aircraft only): 131.125

ESOW Twr/CTAF/Control
Stockholm, Sweden

Feed Status: DOWN
Offline since: 2022-09-15 18:33:39 UTC

ESOW 261250Z 13009KT 9999 SCT013TCU BKN019 13/10 Q0999

Arlanda Approach: 123.750
Arlanda Approach: 126.655
Arlanda Approach: 130.325
Arlanda Departure: 124.100
Arlanda Tower: 118.505
Arlanda Tower: 128.725
Enkoping/Langtora: 123.525
Eskilstuna: 126.850
Frolunda: 123.400
Johannisberg CTAF: 123.650
Ska Edeby: 123.350
Stockholm Control: 120.155
Stockholm Control: 118.405
Stockholm Control: 118.280
Sweden Control: 133.260
Sweden Control: 129.175
Sweden Control: 131.130
Uppsala Tower: 119.200
Uppsala/Sundbro: 123.350
Vasteras Control: 125.955
Vasteras Tower: 130.600

ESPA Twr/Control (Archives)
Lulea, Sweden

Feed Status: UP
Listen in your browser - HTML5 player(in browser, HTML5)
Click here to listen with your own player(launches your MP3 player)

ESPA 261250Z 14010KT 9999 -DZ BKN013 BKN023 09/07 Q1008

ESPA Flight Activity (Flightaware)

Listeners: 1 out of 1855 total

Emergency/Guard: 121.500
Kallax Control: 125.450
Kallax Tower: 128.200
Sweden Control North: 131.050

ESSG Misc (Archives)
Ludvika, Sweden

Feed Status: UP
Listen in your browser - HTML5 player(in browser, HTML5)
Click here to listen with your own player(launches your MP3 player)

ESSG Flight Activity (Flightaware)

Listeners: 0 out of 1855 total

Borlange Tower: 127.305
Club Frequency: 123.375
Club Frequency: 123.450
Club Frequency: 123.425
Club Frequency: 123.525
Club Frequency: 123.350
Club Frequency: 123.300
Club Frequency: 123.200
Club Frequency: 123.550
Club Frequency: 123.600
Club Frequency: 123.650
Emergency/Guard: 121.500
Hagfors Airport: 122.230
Karlstad Airport: 119.455
Ludvika Club Freq: 123.150
Mora Airport: 119.055
Orebro Airport: 120.280
Orsa Club Frequency: 123.400
Orsa Club Frequency: 123.500
Scandinavian Mountains Airport: 124.460
Search and Rescue: 123.100
Sweden Control: 131.055
Sweden Control: 131.125
Sweden Control: 131.155
Sweden Control: 132.765
Sweden Control: 131.130
Sweden Control: 129.180
Sweden Control: 128.630
Sweden Control: 132.150
Torsby Airport: 122.055
Vasteras Control: 125.955

ESSL Twr/App/Control (Archives)
Linkoping, Sweden

Feed Status: UP
Listen in your browser - HTML5 player(in browser, HTML5)
Click here to listen with your own player(launches your MP3 player)

ESSL 261250Z 15005KT 120V190 9999 SCT025 BKN061 14/09 Q0998

ESSL Flight Activity (Flightaware)

Listeners: 1 out of 1855 total

Emergency/Guard: 121.500
Linkoping Tower: 118.800
Linkoping Tower (Secondary): 123.400
Ostgota Control: 127.350
Ostgota Control: 126.400
Ostgota Control: 135.850
Ostgota Control: 132.950
Ostgota Control: 128.700
Ostgota Control (Malmen Sector): 133.100
Ostgota Control/Sweden Control: 118.400

ESSP Twr/App/Control (Archives)
Norrkoping, Sweden

Feed Status: UP
Listen in your browser - HTML5 player(in browser, HTML5)
Click here to listen with your own player(launches your MP3 player)

ESSP 261250Z 15004KT 040V190 9999 SCT022 SCT045 14/09 Q0998

ESSP Flight Activity (Flightaware)

Listeners: 3 out of 1855 total

Kungsangen Tower: 120.355
Osgota Approach/Departure: 132.955
Sweden Control: 118.280
Sweden Control: 118.405
Sweden Control: 134.455

ESVQ CTAF
Koping, Sweden

Feed Status: DOWN
Offline since: 2021-09-28 07:56:21 UTC

Koping CTAF: 123.150

EVRA Approach (Archives)
Riga, Latvia

Feed Status: UP
Listen in your browser - HTML5 player(in browser, HTML5)
Click here to listen with your own player(launches your MP3 player)

EVRA 261250Z 16011KT 130V190 9999 SCT033 16/08 Q1006 NOSIG

EVRA Flight Activity (Flightaware)

Listeners: 1 out of 1855 total

Riga Approach: 129.925

EVRA CTAF (Archives)
Riga, Latvia

Feed Status: UP
Listen in your browser - HTML5 player(in browser, HTML5)
Click here to listen with your own player(launches your MP3 player)

EVRA 261250Z 16011KT 130V190 9999 SCT033 16/08 Q1006 NOSIG

EVRA Flight Activity (Flightaware)

Listeners: 0 out of 1855 total

Riga Approach (evenings): 134.850
Riga CTAF: 123.950

EVRA FIC (Archives)
Riga, Latvia

Feed Status: UP
Listen in your browser - HTML5 player(in browser, HTML5)
Click here to listen with your own player(launches your MP3 player)

EVRA 261250Z 16011KT 130V190 9999 SCT033 16/08 Q1006 NOSIG

EVRA Flight Activity (Flightaware)

Listeners: 0 out of 1855 total

Riga FIC: 120.225

EVRA Tower/Guard (Archives)
Riga, Latvia

Feed Status: UP
Listen in your browser - HTML5 player(in browser, HTML5)
Click here to listen with your own player(launches your MP3 player)

EVRA 261250Z 16011KT 130V190 9999 SCT033 16/08 Q1006 NOSIG

EVRA Flight Activity (Flightaware)

Listeners: 0 out of 1855 total

Emergency/Guard: 121.500
Riga Tower: 118.100

EYVI Twr/App/Misc (Archives)
Vilnius, Lithuania

Feed Status: UP
Listen in your browser - HTML5 player(in browser, HTML5)
Click here to listen with your own player(launches your MP3 player)

EYVI 261250Z 14007KT 110V180 9999 BKN042 16/05 Q1007 NOSIG

EYVI Flight Activity (Flightaware)

Listeners: 1 out of 1855 total

Emergency / GUARD: 121.500
FlyLAL, AirBaltic transit services: 131.900
FlyLAL, AirBaltic transit services: 131.600
FlyLAL, AirBaltic transit services: 131.500
Kaunas Approach (EYKA): 124.200
Vilnius Approach: 120.700
Vilnius Control: 132.275
Vilnius Control: 133.425
Vilnius Control: 133.300
Vilnius FIS: 123.850
Vilnius Tower: 118.200
Zokniai A/G (mil): 122.775

LBBG Twr/App (Archives)
Burgas, Bulgaria

Feed Status: UP
Listen in your browser - HTML5 player(in browser, HTML5)
Click here to listen with your own player(launches your MP3 player)

LBBG 261300Z 13012KT CAVOK 23/14 Q1011 NOSIG

LBBG Flight Activity (Flightaware)

Listeners: 0 out of 1855 total

Burgas Approach: 125.100
Burgas Tower: 118.000

LBPD Tower (Archives)
Plovdiv, Bulgaria

Feed Status: UP
Listen in your browser - HTML5 player(in browser, HTML5)
Click here to listen with your own player(launches your MP3 player)

LBSF 261300Z 34003KT 260V040 9999 BKN082 25/09 Q1011 NOSIG

LBSF Flight Activity (Flightaware)

Listeners: 1 out of 1855 total

Plovdiv Tower: 125.500
Plovdiv Tower: 133.600

LBSF ATIS (Archives)
Sofia, Bulgaria

Feed Status: UP
Listen in your browser - HTML5 player(in browser, HTML5)
Click here to listen with your own player(launches your MP3 player)

LBSF 261300Z 34003KT 260V040 9999 BKN082 25/09 Q1011 NOSIG

LBSF Flight Activity (Flightaware)

Listeners: 2 out of 1855 total

Sofia ATIS: 126.680

LBSF Sofia Control East (Archives)
Sofia, Bulgaria

Feed Status: UP
Listen in your browser - HTML5 player(in browser, HTML5)
Click here to listen with your own player(launches your MP3 player)

LBSF 261300Z 34003KT 260V040 9999 BKN082 25/09 Q1011 NOSIG

LBSF Flight Activity (Flightaware)

Listeners: 6 out of 1855 total

Sofia Control (East/Middle Sector): 129.100
Sofia Control (Varna Sector): 134.700

LBSF Twr/App #1 (Archives)
Sofia, Bulgaria

Feed Status: UP
Listen in your browser - HTML5 player(in browser, HTML5)
Click here to listen with your own player(launches your MP3 player)

LBSF 261300Z 34003KT 260V040 9999 BKN082 25/09 Q1011 NOSIG

LBSF Flight Activity (Flightaware)

Listeners: 3 out of 1855 total

Sofia Approach: 123.700
Sofia Approach: 129.900
Sofia Tower: 118.100
Sofia Tower: 120.200

LBSF Twr/App #2 (Archives)
Sofia, Bulgaria

Feed Status: UP
Listen in your browser - HTML5 player(in browser, HTML5)
Click here to listen with your own player(launches your MP3 player)

LBSF 261300Z 34003KT 260V040 9999 BKN082 25/09 Q1011 NOSIG

LBSF Flight Activity (Flightaware)

Listeners: 2 out of 1855 total

Sofia Approach: 123.700
Sofia Tower: 118.100

Bordeaux Control (Archives)
Bordeaux, France

Feed Status: UP
Listen in your browser - HTML5 player(in browser, HTML5)
Click here to listen with your own player(launches your MP3 player)

LFBD 261230Z AUTO 26012KT 230V300 9999 SCT047 BKN056 BKN160 20/08 Q1014 BECMG 27015G25KT

LFBD Flight Activity (Flightaware)

Listeners: 2 out of 1855 total

Air to Air: 123.450
Bordeaux Control BN FL<300: 127.675
Bordeaux Control L3 FL>300: 134.250
Bordeaux Control R2 FL>300: 133.575
Emergency/Guard: 121.500

LFBD Aquitane Approach (Archives)
Bordeaux, France

Feed Status: UP
Listen in your browser - HTML5 player(in browser, HTML5)
Click here to listen with your own player(launches your MP3 player)

LFBD 261230Z AUTO 26012KT 230V300 9999 SCT047 BKN056 BKN160 20/08 Q1014 BECMG 27015G25KT

LFBD Flight Activity (Flightaware)

Listeners: 2 out of 1855 total

Aquitane Approach: 129.875

LFBD ATIS
Bordeaux, France

Feed Status: DOWN
Offline since: 2022-09-24 11:17:23 UTC

LFBD 261230Z AUTO 26012KT 230V300 9999 SCT047 BKN056 BKN160 20/08 Q1014 BECMG 27015G25KT

Merignac ATIS: 131.150

LFBD Bordeaux Control Sector X1 (Archives)
Bordeaux, France

Feed Status: UP
Listen in your browser - HTML5 player(in browser, HTML5)
Click here to listen with your own player(launches your MP3 player)

LFBD 261230Z AUTO 26012KT 230V300 9999 SCT047 BKN056 BKN160 20/08 Q1014 BECMG 27015G25KT

LFBD Flight Activity (Flightaware)

Listeners: 1 out of 1855 total

Bordeaux Control (Sector X1): 118.425

LFBD Ground (Archives)
Bordeaux, France

Feed Status: UP
Listen in your browser - HTML5 player(in browser, HTML5)
Click here to listen with your own player(launches your MP3 player)

LFBD 261230Z AUTO 26012KT 230V300 9999 SCT047 BKN056 BKN160 20/08 Q1014 BECMG 27015G25KT

LFBD Flight Activity (Flightaware)

Listeners: 1 out of 1855 total

Merignac Ground: 121.900

LFBD Tower (Archives)
Bordeaux, France

Feed Status: UP
Listen in your browser - HTML5 player(in browser, HTML5)
Click here to listen with your own player(launches your MP3 player)

LFBD 261230Z AUTO 26012KT 230V300 9999 SCT047 BKN056 BKN160 20/08 Q1014 BECMG 27015G25KT

LFBD Flight Activity (Flightaware)

Listeners: 4 out of 1855 total

Merignac Tower: 118.300

Bordeaux Control (Archives)
Angouleme, France

Feed Status: UP
Listen in your browser - HTML5 player(in browser, HTML5)
Click here to listen with your own player(launches your MP3 player)

LFBD 261230Z AUTO 26012KT 230V300 9999 SCT047 BKN056 BKN160 20/08 Q1014 BECMG 27015G25KT

LFBD Flight Activity (Flightaware)

Listeners: 2 out of 1855 total

Air to Air: 123.450
Bordeaux Control BN FL<300: 127.675
Bordeaux Control L3 FL>300: 134.250
Bordeaux Control R2 FL>300: 133.575
Emergency/Guard: 121.500

LFBZ Tower (Archives)
Biarritz, France

Feed Status: UP
Listen in your browser - HTML5 player(in browser, HTML5)
Click here to listen with your own player(launches your MP3 player)

LFBZ 261230Z AUTO 27011KT 230V290 9999 BKN025 BKN044 BKN086 19/13 Q1016 TEMPO SCT030TCU

LFBZ Flight Activity (Flightaware)

Listeners: 1 out of 1855 total


LFLL Tower (Archives)
Lyon, France

Feed Status: UP
Listen in your browser - HTML5 player(in browser, HTML5)
Click here to listen with your own player(launches your MP3 player)

LFLL 261230Z VRB03KT 9999 FEW041 BKN260 17/07 Q1010 NOSIG

LFLL Flight Activity (Flightaware)

Listeners: 1 out of 1855 total

Lyon Tower: 120.450

Lyon FIS (Archives)
Lyon, France

Feed Status: UP
Listen in your browser - HTML5 player(in browser, HTML5)
Click here to listen with your own player(launches your MP3 player)

LFLL 261230Z VRB03KT 9999 FEW041 BKN260 17/07 Q1010 NOSIG

LFLL Flight Activity (Flightaware)

Listeners: 1 out of 1855 total

Lyon FIS: 135.200

LFLP Twr/LFLB App (Archives)
Annecy, France

Feed Status: UP
Listen in your browser - HTML5 player(in browser, HTML5)
Click here to listen with your own player(launches your MP3 player)

LFLP 261230Z AUTO 21003KT 150V310 9999 FEW031 SCT076 BKN130 16/09 Q1010 NOSIG

LFLP Flight Activity (Flightaware)

Listeners: 0 out of 1855 total

Annecy Tower: 118.200
Chambery Approach: 121.205
Chambery Info: 123.700

LFLY Tower (Archives)
Bron, France

Feed Status: UP
Listen in your browser - HTML5 player(in browser, HTML5)
Click here to listen with your own player(launches your MP3 player)

LFLY 261230Z AUTO 25004KT 220V330 9999 BKN050 BKN060 BKN078 18/07 Q1010 NOSIG

LFLY Flight Activity (Flightaware)

Listeners: 14 out of 1855 total

Lyon-Bron Tower: 118.100

Lyon FIS (Archives)
Bron, France

Feed Status: UP
Listen in your browser - HTML5 player(in browser, HTML5)
Click here to listen with your own player(launches your MP3 player)

LFLL 261230Z VRB03KT 9999 FEW041 BKN260 17/07 Q1010 NOSIG

LFLL Flight Activity (Flightaware)

Listeners: 1 out of 1855 total

Lyon FIS: 135.200

LFMD Ground/Tower (Archives)
Cannes, France

Feed Status: UP
Listen in your browser - HTML5 player(in browser, HTML5)
Click here to listen with your own player(launches your MP3 player)

LFMD 261230Z AUTO 16009KT 9999 FEW054 23/14 Q1005 BECMG 26010KT

LFMD Flight Activity (Flightaware)

Listeners: 1 out of 1855 total

Cannes Ground: 121.805
Cannes Tower: 118.625

LFMN Approach (Archives)
Nice, France

Feed Status: UP
Listen in your browser - HTML5 player(in browser, HTML5)
Click here to listen with your own player(launches your MP3 player)

LFMN 261230Z 18008KT 9999 FEW028 22/15 Q1005 NOSIG

LFMN Flight Activity (Flightaware)

Listeners: 2 out of 1855 total

Nice Approach: 128.205

LFMN Control (High) (Archives)
Nice, France

Feed Status: UP
Listen in your browser - HTML5 player(in browser, HTML5)
Click here to listen with your own player(launches your MP3 player)

LFMN 261230Z 18008KT 9999 FEW028 22/15 Q1005 NOSIG

LFMN Flight Activity (Flightaware)

Listeners: 1 out of 1855 total

Marseille Control Sector K1 (FL245-FL305): 126.780

LFMN FIS/Approach (Archives)
Nice, France

Feed Status: UP
Listen in your browser - HTML5 player(in browser, HTML5)
Click here to listen with your own player(launches your MP3 player)

LFMN 261230Z 18008KT 9999 FEW028 22/15 Q1005 NOSIG

LFMN Flight Activity (Flightaware)

Listeners: 1 out of 1855 total

Nice FIS/Approach (TMA4 NICE 2500ft - FL115): 120.850

LFMN Ground/Tower (Archives)
Nice, France

Feed Status: UP
Listen in your browser - HTML5 player(in browser, HTML5)
Click here to listen with your own player(launches your MP3 player)

LFMN 261230Z 18008KT 9999 FEW028 22/15 Q1005 NOSIG

LFMN Flight Activity (Flightaware)

Listeners: 1 out of 1855 total

Nice Ground: 121.700
Nice Tower: 118.700

LFPO Approach (Archives)
Paris, France

Feed Status: UP
Listen in your browser - HTML5 player(in browser, HTML5)
Click here to listen with your own player(launches your MP3 player)

LFPO 261230Z 21013KT 3000 RA BR BKN010 SCT016CB BKN023 12/11 Q1004 TEMPO 23015G30KT 2000 RA BKN012 SCT050CB

LFPO Flight Activity (Flightaware)

Listeners: 9 out of 1855 total

Orly Approach: 124.450
Orly Approach: 118.850
Orly Approach: 120.850
Orly Approach: 123.875

LFPO Tower (Archives)
Paris, France

Feed Status: UP
Listen in your browser - HTML5 player(in browser, HTML5)
Click here to listen with your own player(launches your MP3 player)

LFPO 261230Z 21013KT 3000 RA BR BKN010 SCT016CB BKN023 12/11 Q1004 TEMPO 23015G30KT 2000 RA BKN012 SCT050CB

LFPO Flight Activity (Flightaware)

Listeners: 18 out of 1855 total

Orly Tower: 120.500
Orly Tower: 118.700

LFPZ ATIS
Villacoublay, France

Feed Status: DOWN
Offline since: 2022-04-18 13:56:39 UTC

St. Cyr-L'Ecole ATIS: 131.025

LFPZ Tower
Villacoublay, France

Feed Status: DOWN
Offline since: 2022-04-18 12:22:39 UTC

St. Cyr-L'Ecole Tower: 118.000

LHBP Approach (Archives)
Budapest, Hungary

Feed Status: UP
Listen in your browser - HTML5 player(in browser, HTML5)
Click here to listen with your own player(launches your MP3 player)

LHBP 261300Z 32004KT 280V020 9999 FEW028 BKN320 18/12 Q1007 NOSIG

LHBP Flight Activity (Flightaware)

Listeners: 0 out of 1855 total

Budapest Approach: 122.975
Budapest Approach (Upper): 123.860

LHBP Approach (Director) (Archives)
Budapest, Hungary

Feed Status: UP
Listen in your browser - HTML5 player(in browser, HTML5)
Click here to listen with your own player(launches your MP3 player)

LHBP 261300Z 32004KT 280V020 9999 FEW028 BKN320 18/12 Q1007 NOSIG

LHBP Flight Activity (Flightaware)

Listeners: 0 out of 1855 total

Budapest Director: 119.510

LHBP ATIS (Archives)
Budapest, Hungary

Feed Status: UP
Listen in your browser - HTML5 player(in browser, HTML5)
Click here to listen with your own player(launches your MP3 player)

LHBP 261300Z 32004KT 280V020 9999 FEW028 BKN320 18/12 Q1007 NOSIG

LHBP Flight Activity (Flightaware)

Listeners: 3 out of 1855 total

Budapest ATIS: 132.380

LHBP Clearance Delivery (Archives)
Budapest, Hungary

Feed Status: UP
Listen in your browser - HTML5 player(in browser, HTML5)
Click here to listen with your own player(launches your MP3 player)

LHBP 261300Z 32004KT 280V020 9999 FEW028 BKN320 18/12 Q1007 NOSIG

LHBP Flight Activity (Flightaware)

Listeners: 0 out of 1855 total

Budapest Clearance Delivery: 134.540

LHBP Ground (Archives)
Budapest, Hungary

Feed Status: UP
Listen in your browser - HTML5 player(in browser, HTML5)
Click here to listen with your own player(launches your MP3 player)

LHBP 261300Z 32004KT 280V020 9999 FEW028 BKN320 18/12 Q1007 NOSIG

LHBP Flight Activity (Flightaware)

Listeners: 1 out of 1855 total

Budapest Ground: 121.910

LHBP Info (Archives)
Budapest, Hungary

Feed Status: UP
Listen in your browser - HTML5 player(in browser, HTML5)
Click here to listen with your own player(launches your MP3 player)

LHBP 261300Z 32004KT 280V020 9999 FEW028 BKN320 18/12 Q1007 NOSIG

LHBP Flight Activity (Flightaware)

Listeners: 9 out of 1855 total

Budapest Info: 119.350

LHBP Tower (Archives)
Budapest, Hungary

Feed Status: UP
Listen in your browser - HTML5 player(in browser, HTML5)
Click here to listen with your own player(launches your MP3 player)

LHBP 261300Z 32004KT 280V020 9999 FEW028 BKN320 18/12 Q1007 NOSIG

LHBP Flight Activity (Flightaware)

Listeners: 14 out of 1855 total

Budapest Tower: 118.100

LHBP Twr/Info (Archives)
Budapest, Hungary

Feed Status: UP
Listen in your browser - HTML5 player(in browser, HTML5)
Click here to listen with your own player(launches your MP3 player)

LHBP 261300Z 32004KT 280V020 9999 FEW028 BKN320 18/12 Q1007 NOSIG

LHBP Flight Activity (Flightaware)

Listeners: 0 out of 1855 total

Budapest Info: 119.350
Budapest Tower: 118.100

LHCC Control (East/West) (Archives)
Budapest, Hungary

Feed Status: UP
Listen in your browser - HTML5 player(in browser, HTML5)
Click here to listen with your own player(launches your MP3 player)

LHBP 261300Z 32004KT 280V020 9999 FEW028 BKN320 18/12 Q1007 NOSIG

LHBP Flight Activity (Flightaware)

Listeners: 0 out of 1855 total

Budapest Control (East Low Sector): 120.375
Budapest Control (West Low Sector): 133.200

LHDC Info/Tower (Archives)
Debrecen, Hungary

Feed Status: UP
Listen in your browser - HTML5 player(in browser, HTML5)
Click here to listen with your own player(launches your MP3 player)

LHDC 261236Z AUTO 21009KT 170V250 9999 BKN011 BKN077 17/14 Q1008

LHDC Flight Activity (Flightaware)

Listeners: 15 out of 1855 total

Debrecen Info/Tower: 125.900

LHEM CTAF
Esztergom, Hungary

Feed Status: DOWN
Offline since: 2022-08-23 06:58:26 UTC

Esztergom CTAF: 126.850

LHOY CTAF
Ocseny, Hungary

Feed Status: DOWN
Offline since: 2022-01-07 14:33:22 UTC

Ocseny CTAF: 122.830

LHPR Info/AFIS
Gyor, Hungary

Feed Status: DOWN
Offline since: 2022-07-11 08:08:23 UTC

LHPR 261215Z AUTO 34006KT 290V020 9999 FEW032 18/11 Q1007 NOSIG

Gyor AFIS: 129.910

LJLJ Info (Archives)
Ljubljana, Slovenia

Feed Status: UP
Listen in your browser - HTML5 player(in browser, HTML5)
Click here to listen with your own player(launches your MP3 player)

LJLJ 261230Z 12005KT 9999 VCSH FEW010 SCT030TCU BKN085 16/13 Q1007 NOSIG

LJLJ Flight Activity (Flightaware)

Listeners: 0 out of 1855 total

Ljubljana Info: 118.475

LJLJ Radar (Archives)
Ljubljana, Slovenia

Feed Status: UP
Listen in your browser - HTML5 player(in browser, HTML5)
Click here to listen with your own player(launches your MP3 player)

LJLJ 261230Z 12005KT 9999 VCSH FEW010 SCT030TCU BKN085 16/13 Q1007 NOSIG

LJLJ Flight Activity (Flightaware)

Listeners: 0 out of 1855 total

Ljubljana Approach: 135.275

LJLJ Tower (Archives)
Ljubljana, Slovenia

Feed Status: UP
Listen in your browser - HTML5 player(in browser, HTML5)
Click here to listen with your own player(launches your MP3 player)

LJLJ 261230Z 12005KT 9999 VCSH FEW010 SCT030TCU BKN085 16/13 Q1007 NOSIG

LJLJ Flight Activity (Flightaware)

Listeners: 0 out of 1855 total

Ljubljana Tower: 118.000

LJMB Tower (Archives)
Maribor, Slovenia

Feed Status: UP
Listen in your browser - HTML5 player(in browser, HTML5)
Click here to listen with your own player(launches your MP3 player)

LJMB 261230Z 09004KT 060V120 9999 SCT021 BKN063 17/13 Q1007

LJMB Flight Activity (Flightaware)

Listeners: 0 out of 1855 total

Maribor Tower/Approach: 119.200

LJMS CTAF (Archives)
Murska Sobota, Slovenia

Feed Status: UP
Listen in your browser - HTML5 player(in browser, HTML5)
Click here to listen with your own player(launches your MP3 player)

LJMS Flight Activity (Flightaware)

Listeners: 0 out of 1855 total

Murska Sobota Aerodrome Radio: 123.500

LJPZ Tower (Archives)
Secovlje, Slovenia

Feed Status: UP
Listen in your browser - HTML5 player(in browser, HTML5)
Click here to listen with your own player(launches your MP3 player)

LJPZ 261230Z 21007KT 170V270 9999 FEW020 SCT250 21/16 Q1006

LJPZ Flight Activity (Flightaware)

Listeners: 1 out of 1855 total

Portoroz Tower: 124.875

LKPM Tower
Pribram, Czech Republic

Feed Status: DOWN
Offline since: 2022-09-23 00:35:40 UTC

Pribram Tower: 118.755

LKAA FIR (High) (Archives)
Prague, Czech Republic

Feed Status: UP
Listen in your browser - HTML5 player(in browser, HTML5)
Click here to listen with your own player(launches your MP3 player)

LKAA Flight Activity (Flightaware)

Listeners: 0 out of 1855 total

LKAA FIR Sector West High / Praha Radar : 132.065

LKAA FIR (Low) (Archives)
Prague, Czech Republic

Feed Status: UP
Listen in your browser - HTML5 player(in browser, HTML5)
Click here to listen with your own player(launches your MP3 player)

LKAA Flight Activity (Flightaware)

Listeners: 0 out of 1855 total

LKAA FIR Sector West Low / Praha Radar: 120.275

LKPR Approach (Archives)
Prague, Czech Republic

Feed Status: UP
Listen in your browser - HTML5 player(in browser, HTML5)
Click here to listen with your own player(launches your MP3 player)

LKPR 261230Z 21012KT 9999 SCT024 15/09 Q1006 NOSIG

LKPR Flight Activity (Flightaware)

Listeners: 2 out of 1855 total

Prague Approach/Radar: 127.580

LKPR Clearance Del (Archives)
Prague, Czech Republic

Feed Status: UP
Listen in your browser - HTML5 player(in browser, HTML5)
Click here to listen with your own player(launches your MP3 player)

LKPR 261230Z 21012KT 9999 SCT024 15/09 Q1006 NOSIG

LKPR Flight Activity (Flightaware)

Listeners: 0 out of 1855 total

Prague/Ruzyne Clearance Delivery: 120.060

LKPR Director/Ruzyne Radar (Archives)
Prague, Czech Republic

Feed Status: UP
Listen in your browser - HTML5 player(in browser, HTML5)
Click here to listen with your own player(launches your MP3 player)

LKPR 261230Z 21012KT 9999 SCT024 15/09 Q1006 NOSIG

LKPR Flight Activity (Flightaware)

Listeners: 2 out of 1855 total

Prague Director/Ruzyne Radar: 119.010

LKPR Ground (Archives)
Prague, Czech Republic

Feed Status: UP
Listen in your browser - HTML5 player(in browser, HTML5)
Click here to listen with your own player(launches your MP3 player)

LKPR 261230Z 21012KT 9999 SCT024 15/09 Q1006 NOSIG

LKPR Flight Activity (Flightaware)

Listeners: 0 out of 1855 total

Prague/Ruzyne Ground: 121.910

LKPR Tower (Archives)
Prague, Czech Republic

Feed Status: UP
Listen in your browser - HTML5 player(in browser, HTML5)
Click here to listen with your own player(launches your MP3 player)

LKPR 261230Z 21012KT 9999 SCT024 15/09 Q1006 NOSIG

LKPR Flight Activity (Flightaware)

Listeners: 3 out of 1855 total

Prague/Ruzyne Tower: 134.560

LKTB Gnd/Twr/Radar (Archives)
Brno, Czech Republic

Feed Status: UP
Listen in your browser - HTML5 player(in browser, HTML5)
Click here to listen with your own player(launches your MP3 player)

LKTB 261230Z VRB01KT 9999 SCT041 17/09 Q1006 NOSIG

LKTB Flight Activity (Flightaware)

Listeners: 2 out of 1855 total

Brno Ground: 125.430
Brno Handling: 131.800
Brno Tower: 119.605
Praha Radar (Approach): 127.350

LMML GndTwr/App/Control (Archives)
Luqa, Malta

Feed Status: UP
Listen in your browser - HTML5 player(in browser, HTML5)
Click here to listen with your own player(launches your MP3 player)

LMML 261245Z 18012KT 9999 FEW016 27/22 Q1011 NOSIG

LMML Flight Activity (Flightaware)

Listeners: 3 out of 1855 total

Emergency/Guard: 121.500
Luqa Ground: 121.600
Luqa Radar: 128.150
Luqa Tower: 135.100
Malta Radar - East (Primary): 122.775
Malta Radar - East (Secondary): 123.625
Malta Radar - UHF: 284.500
Malta Radar - West (Primary): 130.975
Malta Radar - West (Secondary): 127.525

LPCS Tower
Cascais, Portugal

Feed Status: DOWN
Offline since: 2022-09-26 11:53:22 UTC

LPCS 261230Z 34011KT CAVOK 23/09 Q1016

Cascais Tower: 120.305

LPLA Twr/App (Archives)
Lajes, Portugal

Feed Status: UP
Listen in your browser - HTML5 player(in browser, HTML5)
Click here to listen with your own player(launches your MP3 player)

LPLA 261200Z /////KT 9999 FEW022 SCT035 23/17 Q1029

LPLA Flight Activity (Flightaware)

Listeners: 0 out of 1855 total

Lajes Approach: 135.000
Lajes Tower: 122.100

LPMA App/LPPC Center
Madeira, Portugal

Feed Status: DOWN
Offline since: 2022-09-25 15:29:40 UTC

Lisboa Control (Madeira Sector): 132.255
Madeira Approach: 119.605

LPMA Approach (Archives)
Madeira, Portugal

Feed Status: UP
Listen in your browser - HTML5 player(in browser, HTML5)
Click here to listen with your own player(launches your MP3 player)

LPMA 261230Z 03013G25KT 010V070 9999 BKN015 FEW018TCU 22/13 Q1020

LPMA Flight Activity (Flightaware)

Listeners: 2 out of 1855 total

Madeira Approach: 119.605

LPPR Approach #1 (Archives)
Porto, Portugal

Feed Status: UP
Listen in your browser - HTML5 player(in browser, HTML5)
Click here to listen with your own player(launches your MP3 player)

LPPR 261230Z 31011KT 280V340 CAVOK 20/09 Q1018

LPPR Flight Activity (Flightaware)

Listeners: 1 out of 1855 total

Porto Approach: 121.105

LPPT Approach (Archives)
Lisbon, Portugal

Feed Status: UP
Listen in your browser - HTML5 player(in browser, HTML5)
Click here to listen with your own player(launches your MP3 player)

LPPT 261230Z 31009KT 270V010 CAVOK 24/08 Q1016

LPPT Flight Activity (Flightaware)

Listeners: 2 out of 1855 total

Lisbon Approach: 119.105

LRCL Twr/App #1 (Archives)
Cluj-Napoca, Romania

Feed Status: UP
Listen in your browser - HTML5 player(in browser, HTML5)
Click here to listen with your own player(launches your MP3 player)

LRCL 261230Z 36003KT 270V040 9999 FEW040CB BKN049 15/12 Q1009

LRCL Flight Activity (Flightaware)

Listeners: 0 out of 1855 total

Cluj Approach: 126.425
Cluj Tower: 118.705

LRCL Twr/App/ACC (Archives)
Cluj-Napoca, Romania

Feed Status: UP
Listen in your browser - HTML5 player(in browser, HTML5)
Click here to listen with your own player(launches your MP3 player)

LRCL 261230Z 36003KT 270V040 9999 FEW040CB BKN049 15/12 Q1009

LRCL Flight Activity (Flightaware)

Listeners: 0 out of 1855 total

Cluj Approach: 126.425
Cluj Tower: 118.705
Napoc ACC: 127.075

LROP Ground (Archives)
Bucharest, Romania

Feed Status: UP
Listen in your browser - HTML5 player(in browser, HTML5)
Click here to listen with your own player(launches your MP3 player)

LROP 261230Z 21006KT 170V240 CAVOK 25/08 Q1010 NOSIG

LROP Flight Activity (Flightaware)

Listeners: 0 out of 1855 total

Bucharest Ground: 121.855

LROP Radar (Archives)
Bucharest, Romania

Feed Status: UP
Listen in your browser - HTML5 player(in browser, HTML5)
Click here to listen with your own player(launches your MP3 player)

LROP 261230Z 21006KT 170V240 CAVOK 25/08 Q1010 NOSIG

LROP Flight Activity (Flightaware)

Listeners: 1 out of 1855 total

Bucharest Radar (Arges Mid sector): 121.175
Bucharest Radar (Arges Top Sector): 123.265
Bucharest Radar (Lomos Top Sector): 132.865

LROP Tower/Approach (Archives)
Bucharest, Romania

Feed Status: UP
Listen in your browser - HTML5 player(in browser, HTML5)
Click here to listen with your own player(launches your MP3 player)

LROP 261230Z 21006KT 170V240 CAVOK 25/08 Q1010 NOSIG

LROP Flight Activity (Flightaware)

Listeners: 0 out of 1855 total

Bucharest Approach: 119.415
Bucharest Director: 127.155
Bucharest Tower: 118.805

LROP Twr/App/Radar (Archives)
Bucharest, Romania

Feed Status: UP
Listen in your browser - HTML5 player(in browser, HTML5)
Click here to listen with your own player(launches your MP3 player)

LROP 261230Z 21006KT 170V240 CAVOK 25/08 Q1010 NOSIG

LROP Flight Activity (Flightaware)

Listeners: 6 out of 1855 total

Bucharest Approach: 119.415
Bucharest Director: 127.155
Bucharest Radar (Arges Mid sector): 121.175
Bucharest Radar (Arges Top Sector): 123.265
Bucharest Radar (Lomos Top Sector): 132.865
Bucharest Tower: 118.805

LRSB Tower/CTAF (Archives)
Sibiu, Romania

Feed Status: UP
Listen in your browser - HTML5 player(in browser, HTML5)
Click here to listen with your own player(launches your MP3 player)

LRSB 261230Z VRB02KT 9999 FEW060 21/11 Q1008

LRSB Flight Activity (Flightaware)

Listeners: 0 out of 1855 total

Sibiu Tower: 121.305

LRTR Tower (Archives)
Timisoara, Romania

Feed Status: UP
Listen in your browser - HTML5 player(in browser, HTML5)
Click here to listen with your own player(launches your MP3 player)

LRTR 261230Z 19009KT CAVOK 20/15 Q1008

LRTR Flight Activity (Flightaware)

Listeners: 0 out of 1855 total

ARAD Approach: 127.250
Timisoara Tower: 120.100

LSGG Arr/Dep (Archives)
Geneva, Switzerland

Feed Status: UP
Listen in your browser - HTML5 player(in browser, HTML5)
Click here to listen with your own player(launches your MP3 player)

LSGG 261250Z 20009KT 170V240 9999 FEW037 17/07 Q1009 NOSIG

LSGG Flight Activity (Flightaware)

Listeners: 6 out of 1855 total

Geneva Arrival: 136.255
Geneva Departure: 119.530

LSGG Arrival (Archives)
Geneva, Switzerland

Feed Status: UP
Listen in your browser - HTML5 player(in browser, HTML5)
Click here to listen with your own player(launches your MP3 player)

LSGG 261250Z 20009KT 170V240 9999 FEW037 17/07 Q1009 NOSIG

LSGG Flight Activity (Flightaware)

Listeners: 0 out of 1855 total

Geneva Arrival: 136.255

LSGG ATIS (Archives)
Geneva, Switzerland

Feed Status: UP
Listen in your browser - HTML5 player(in browser, HTML5)
Click here to listen with your own player(launches your MP3 player)

LSGG 261250Z 20009KT 170V240 9999 FEW037 17/07 Q1009 NOSIG

LSGG Flight Activity (Flightaware)

Listeners: 0 out of 1855 total

Geneva ATIS: 135.575

LSGG Delta (VFR) (Archives)
Geneva, Switzerland

Feed Status: UP
Listen in your browser - HTML5 player(in browser, HTML5)
Click here to listen with your own player(launches your MP3 player)

LSGG 261250Z 20009KT 170V240 9999 FEW037 17/07 Q1009 NOSIG

LSGG Flight Activity (Flightaware)

Listeners: 0 out of 1855 total

Geneva Delta (VFR): 119.175

LSGG Departure (Archives)
Geneva, Switzerland

Feed Status: UP
Listen in your browser - HTML5 player(in browser, HTML5)
Click here to listen with your own player(launches your MP3 player)

LSGG 261250Z 20009KT 170V240 9999 FEW037 17/07 Q1009 NOSIG

LSGG Flight Activity (Flightaware)

Listeners: 0 out of 1855 total

Geneva Departure: 119.530

LSGG Glider (Archives)
Geneva, Switzerland

Feed Status: UP
Listen in your browser - HTML5 player(in browser, HTML5)
Click here to listen with your own player(launches your MP3 player)

LSGG 261250Z 20009KT 170V240 9999 FEW037 17/07 Q1009 NOSIG

LSGG Flight Activity (Flightaware)

Listeners: 0 out of 1855 total

Geneva Glider: 124.750

LSGG Info (VFR) (Archives)
Geneva, Switzerland

Feed Status: UP
Listen in your browser - HTML5 player(in browser, HTML5)
Click here to listen with your own player(launches your MP3 player)

LSGG 261250Z 20009KT 170V240 9999 FEW037 17/07 Q1009 NOSIG

LSGG Flight Activity (Flightaware)

Listeners: 0 out of 1855 total

Geneva Information (VFR): 126.350

LSGG Radar Ini N/E/S (Archives)
Geneva, Switzerland

Feed Status: UP
Listen in your browser - HTML5 player(in browser, HTML5)
Click here to listen with your own player(launches your MP3 player)

LSGG 261250Z 20009KT 170V240 9999 FEW037 17/07 Q1009 NOSIG

LSGG Flight Activity (Flightaware)

Listeners: 1 out of 1855 total

Geneva Radar Initial East: 128.905
Geneva Radar Initial North: 134.030
Geneva Radar Initial South: 124.225

LSGG Radar Initial East (Archives)
Geneva, Switzerland

Feed Status: UP
Listen in your browser - HTML5 player(in browser, HTML5)
Click here to listen with your own player(launches your MP3 player)

LSGG 261250Z 20009KT 170V240 9999 FEW037 17/07 Q1009 NOSIG

LSGG Flight Activity (Flightaware)

Listeners: 0 out of 1855 total

Geneva Radar Initial East: 128.905

LSGG Radar Initial North (Archives)
Geneva, Switzerland

Feed Status: UP
Listen in your browser - HTML5 player(in browser, HTML5)
Click here to listen with your own player(launches your MP3 player)

LSGG 261250Z 20009KT 170V240 9999 FEW037 17/07 Q1009 NOSIG

LSGG Flight Activity (Flightaware)

Listeners: 0 out of 1855 total

Geneva Radar Initial North: 134.030

LSGG Radar Initial South (Archives)
Geneva, Switzerland

Feed Status: UP
Listen in your browser - HTML5 player(in browser, HTML5)
Click here to listen with your own player(launches your MP3 player)

LSGG 261250Z 20009KT 170V240 9999 FEW037 17/07 Q1009 NOSIG

LSGG Flight Activity (Flightaware)

Listeners: 0 out of 1855 total

Geneva Radar Initial South: 124.225

LSGG Radar L1 250-280 (Archives)
Geneva, Switzerland

Feed Status: UP
Listen in your browser - HTML5 player(in browser, HTML5)
Click here to listen with your own player(launches your MP3 player)

LSGG 261250Z 20009KT 170V240 9999 FEW037 17/07 Q1009 NOSIG

LSGG Flight Activity (Flightaware)

Listeners: 0 out of 1855 total

Geneva Radar L1 FL250-280: 134.850

LSGG Radar L1/L2/L3/L4/L5 (Archives)
Geneva, Switzerland

Feed Status: UP
Listen in your browser - HTML5 player(in browser, HTML5)
Click here to listen with your own player(launches your MP3 player)

LSGG 261250Z 20009KT 170V240 9999 FEW037 17/07 Q1009 NOSIG

LSGG Flight Activity (Flightaware)

Listeners: 0 out of 1855 total

Geneva Radar L1 FL250-280: 134.850
Geneva Radar L2 FL290-310: 126.050
Geneva Radar L3 FL320-330: 134.315
Geneva Radar L3 FL320-330: 136.015
Geneva Radar L5 FL360-370: 128.155

LSGG Radar L2 290-310 (Archives)
Geneva, Switzerland

Feed Status: UP
Listen in your browser - HTML5 player(in browser, HTML5)
Click here to listen with your own player(launches your MP3 player)

LSGG 261250Z 20009KT 170V240 9999 FEW037 17/07 Q1009 NOSIG

LSGG Flight Activity (Flightaware)

Listeners: 0 out of 1855 total

Geneva Radar L2 FL290-310: 126.050

LSGG Radar L3 320-330 (Archives)
Geneva, Switzerland

Feed Status: UP
Listen in your browser - HTML5 player(in browser, HTML5)
Click here to listen with your own player(launches your MP3 player)

LSGG 261250Z 20009KT 170V240 9999 FEW037 17/07 Q1009 NOSIG

LSGG Flight Activity (Flightaware)

Listeners: 0 out of 1855 total

Geneva Radar L3 FL320-330: 134.315

LSGG Radar L4 340-350 (Archives)
Geneva, Switzerland

Feed Status: UP
Listen in your browser - HTML5 player(in browser, HTML5)
Click here to listen with your own player(launches your MP3 player)

LSGG 261250Z 20009KT 170V240 9999 FEW037 17/07 Q1009 NOSIG

LSGG Flight Activity (Flightaware)

Listeners: 0 out of 1855 total

Geneva Radar L4 FL340-350: 136.015

LSGG Radar L5 360-370 (Archives)
Geneva, Switzerland

Feed Status: UP
Listen in your browser - HTML5 player(in browser, HTML5)
Click here to listen with your own player(launches your MP3 player)

LSGG 261250Z 20009KT 170V240 9999 FEW037 17/07 Q1009 NOSIG

LSGG Flight Activity (Flightaware)

Listeners: 1 out of 1855 total

Geneva Radar L5 FL360-370: 128.155

LSGS Gnd/Twr/App (Archives)
Sion, Switzerland

Feed Status: UP
Listen in your browser - HTML5 player(in browser, HTML5)
Click here to listen with your own player(launches your MP3 player)

LSGS 261250Z 24008KT 9999 FEW060 SCT150 16/07 Q1008

LSGS Flight Activity (Flightaware)

Listeners: 1 out of 1855 total

Alpine Jet Service Handling: 131.675
Sion Airport Handling: 131.475
Sion Approach (IFR ARR MIL OFF): 126.825
Sion Ground: 121.700
Sion Tower: 118.275

LSMD Tower (Archives)
Dubendorf, Switzerland

Feed Status: UP
Listen in your browser - HTML5 player(in browser, HTML5)
Click here to listen with your own player(launches your MP3 player)

LSZH 261250Z 28015KT 4000 SHRA FEW027 SCT034 BKN040 11/08 Q1009 BECMG 6000 NSW

LSZH Flight Activity (Flightaware)

Listeners: 0 out of 1855 total

Dubendorf Tower: 118.975

LSMP Arrival (Archives)
Payerne, Switzerland

Feed Status: UP
Listen in your browser - HTML5 player(in browser, HTML5)
Click here to listen with your own player(launches your MP3 player)

LSMP 261250Z 24008KT 200V260 9999 FEW043 BKN080 15/06 Q1009 RMK BLU

LSMP Flight Activity (Flightaware)

Listeners: 0 out of 1855 total

Payerne Arrival: 136.350

LSMP Arrival/Tower (Archives)
Payerne, Switzerland

Feed Status: UP
Listen in your browser - HTML5 player(in browser, HTML5)
Click here to listen with your own player(launches your MP3 player)

LSMP 261250Z 24008KT 200V260 9999 FEW043 BKN080 15/06 Q1009 RMK BLU

LSMP Flight Activity (Flightaware)

Listeners: 0 out of 1855 total

Payerne Arrival: 136.350
Payerne Tower: 128.675

LSMP Tower (Archives)
Payerne, Switzerland

Feed Status: UP
Listen in your browser - HTML5 player(in browser, HTML5)
Click here to listen with your own player(launches your MP3 player)

LSMP 261250Z 24008KT 200V260 9999 FEW043 BKN080 15/06 Q1009 RMK BLU

LSMP Flight Activity (Flightaware)

Listeners: 0 out of 1855 total

Payerne Tower: 128.675

LSPM AFIS (Archives)
Ambri, Switzerland

Feed Status: UP
Listen in your browser - HTML5 player(in browser, HTML5)
Click here to listen with your own player(launches your MP3 player)

LSPM Flight Activity (Flightaware)

Listeners: 0 out of 1855 total

Ambri AFIS: 118.525

LSZA Tower (Archives)
Agno, Switzerland

Feed Status: UP
Listen in your browser - HTML5 player(in browser, HTML5)
Click here to listen with your own player(launches your MP3 player)

LSZA 261250Z 19003KT 9999 FEW065 20/09 Q1006

LSZA Flight Activity (Flightaware)

Listeners: 3 out of 1855 total

Lugano Tower: 120.250

LSZB App/Dep (Archives)
Bern, Switzerland

Feed Status: UP
Listen in your browser - HTML5 player(in browser, HTML5)
Click here to listen with your own player(launches your MP3 player)

LSZB 261250Z 27006KT 9999 SCT033 BKN060 13/08 Q1009

LSZB Flight Activity (Flightaware)

Listeners: 0 out of 1855 total

Bern Arrival/Departure: 127.325

LSZB ATIS (Archives)
Bern, Switzerland

Feed Status: UP
Listen in your browser - HTML5 player(in browser, HTML5)
Click here to listen with your own player(launches your MP3 player)

LSZB 261250Z 27006KT 9999 SCT033 BKN060 13/08 Q1009

LSZB Flight Activity (Flightaware)

Listeners: 0 out of 1855 total

Bern ATIS: 125.130

LSZB Clearance Delivery (Archives)
Bern, Switzerland

Feed Status: UP
Listen in your browser - HTML5 player(in browser, HTML5)
Click here to listen with your own player(launches your MP3 player)

LSZB 261250Z 27006KT 9999 SCT033 BKN060 13/08 Q1009

LSZB Flight Activity (Flightaware)

Listeners: 0 out of 1855 total

Bern Clearance Delivery: 121.905

LSZB Del/Twr/App/Dep (Archives)
Bern, Switzerland

Feed Status: UP
Listen in your browser - HTML5 player(in browser, HTML5)
Click here to listen with your own player(launches your MP3 player)

LSZB 261250Z 27006KT 9999 SCT033 BKN060 13/08 Q1009

LSZB Flight Activity (Flightaware)

Listeners: 1 out of 1855 total

Bern Arrival/Departure: 127.325
Bern Clearance Delivery: 121.905
Bern Tower: 121.025

LSZB Tower (Archives)
Bern, Switzerland

Feed Status: UP
Listen in your browser - HTML5 player(in browser, HTML5)
Click here to listen with your own player(launches your MP3 player)

LSZB 261250Z 27006KT 9999 SCT033 BKN060 13/08 Q1009

LSZB Flight Activity (Flightaware)

Listeners: 1 out of 1855 total

Bern Tower: 121.025

LSZB Twr/App/Dep (Archives)
Bern, Switzerland

Feed Status: UP
Listen in your browser - HTML5 player(in browser, HTML5)
Click here to listen with your own player(launches your MP3 player)

LSZB 261250Z 27006KT 9999 SCT033 BKN060 13/08 Q1009

LSZB Flight Activity (Flightaware)

Listeners: 2 out of 1855 total

Bern Arrival/Departure: 127.325
Bern Tower: 121.025

LSZG Tower (Archives)
Grenchen, Switzerland

Feed Status: UP
Listen in your browser - HTML5 player(in browser, HTML5)
Click here to listen with your own player(launches your MP3 player)

LSZG 261250Z 22010KT 9999 SCT035 15/07 Q1008

LSZG Flight Activity (Flightaware)

Listeners: 3 out of 1855 total

Grenchen Tower: 120.100

LSZH Approach (East) (Archives)
Zurich, Switzerland

Feed Status: UP
Listen in your browser - HTML5 player(in browser, HTML5)
Click here to listen with your own player(launches your MP3 player)

LSZH 261250Z 28015KT 4000 SHRA FEW027 SCT034 BKN040 11/08 Q1009 BECMG 6000 NSW

LSZH Flight Activity (Flightaware)

Listeners: 1 out of 1855 total

Zurich Approach (East): 135.230

LSZH Approach (Final/125.325) (Archives)
Zurich, Switzerland

Feed Status: UP
Listen in your browser - HTML5 player(in browser, HTML5)
Click here to listen with your own player(launches your MP3 player)

LSZH 261250Z 28015KT 4000 SHRA FEW027 SCT034 BKN040 11/08 Q1009 BECMG 6000 NSW

LSZH Flight Activity (Flightaware)

Listeners: 1 out of 1855 total

Zurich Approach (Final): 125.325

LSZH Apron (South) (Archives)
Zurich, Switzerland

Feed Status: UP
Listen in your browser - HTML5 player(in browser, HTML5)
Click here to listen with your own player(launches your MP3 player)

LSZH 261250Z 28015KT 4000 SHRA FEW027 SCT034 BKN040 11/08 Q1009 BECMG 6000 NSW

LSZH Flight Activity (Flightaware)

Listeners: 5 out of 1855 total

Zurich Apron (South): 121.755

LSZH Apron (West) (Archives)
Zurich, Switzerland

Feed Status: UP
Listen in your browser - HTML5 player(in browser, HTML5)
Click here to listen with your own player(launches your MP3 player)

LSZH 261250Z 28015KT 4000 SHRA FEW027 SCT034 BKN040 11/08 Q1009 BECMG 6000 NSW

LSZH Flight Activity (Flightaware)

Listeners: 1 out of 1855 total

Zurich Apron (West): 121.855

LSZH Clearance Delivery (Archives)
Zurich, Switzerland

Feed Status: UP
Listen in your browser - HTML5 player(in browser, HTML5)
Click here to listen with your own player(launches your MP3 player)

LSZH 261250Z 28015KT 4000 SHRA FEW027 SCT034 BKN040 11/08 Q1009 BECMG 6000 NSW

LSZH Flight Activity (Flightaware)

Listeners: 1 out of 1855 total

Zurich Clearance Delivery: 121.925

LSZH Departure 125.950 (Archives)
Zurich, Switzerland

Feed Status: UP
Listen in your browser - HTML5 player(in browser, HTML5)
Click here to listen with your own player(launches your MP3 player)

LSZH 261250Z 28015KT 4000 SHRA FEW027 SCT034 BKN040 11/08 Q1009 BECMG 6000 NSW

LSZH Flight Activity (Flightaware)

Listeners: 2 out of 1855 total

Zurich Departure: 125.950

LSZH Ground (Archives)
Zurich, Switzerland

Feed Status: UP
Listen in your browser - HTML5 player(in browser, HTML5)
Click here to listen with your own player(launches your MP3 player)

LSZH 261250Z 28015KT 4000 SHRA FEW027 SCT034 BKN040 11/08 Q1009 BECMG 6000 NSW

LSZH Flight Activity (Flightaware)

Listeners: 1 out of 1855 total

Zurich Ground: 121.905

LSZH Radar East 133.905 (Archives)
Zurich, Switzerland

Feed Status: UP
Listen in your browser - HTML5 player(in browser, HTML5)
Click here to listen with your own player(launches your MP3 player)

LSZH 261250Z 28015KT 4000 SHRA FEW027 SCT034 BKN040 11/08 Q1009 BECMG 6000 NSW

LSZH Flight Activity (Flightaware)

Listeners: 0 out of 1855 total

Zurich Radar (Below FL240 East): 133.905

LSZH Radar M1 133.050 (Archives)
Zurich, Switzerland

Feed Status: UP
Listen in your browser - HTML5 player(in browser, HTML5)
Click here to listen with your own player(launches your MP3 player)

LSZH 261250Z 28015KT 4000 SHRA FEW027 SCT034 BKN040 11/08 Q1009 BECMG 6000 NSW

LSZH Flight Activity (Flightaware)

Listeners: 0 out of 1855 total

Zurich Radar M1: 133.050

LSZH Radar M2 133.405 (Archives)
Zurich, Switzerland

Feed Status: UP
Listen in your browser - HTML5 player(in browser, HTML5)
Click here to listen with your own player(launches your MP3 player)

LSZH 261250Z 28015KT 4000 SHRA FEW027 SCT034 BKN040 11/08 Q1009 BECMG 6000 NSW

LSZH Flight Activity (Flightaware)

Listeners: 0 out of 1855 total

Zurich Radar M2: 133.405

LSZH Radar M3 132.815 (Archives)
Zurich, Switzerland

Feed Status: UP
Listen in your browser - HTML5 player(in browser, HTML5)
Click here to listen with your own player(launches your MP3 player)

LSZH 261250Z 28015KT 4000 SHRA FEW027 SCT034 BKN040 11/08 Q1009 BECMG 6000 NSW

LSZH Flight Activity (Flightaware)

Listeners: 0 out of 1855 total

Zurich Radar: 132.815

LSZH Radar M4 134.605 (Archives)
Zurich, Switzerland

Feed Status: UP
Listen in your browser - HTML5 player(in browser, HTML5)
Click here to listen with your own player(launches your MP3 player)

LSZH 261250Z 28015KT 4000 SHRA FEW027 SCT034 BKN040 11/08 Q1009 BECMG 6000 NSW

LSZH Flight Activity (Flightaware)

Listeners: 1 out of 1855 total

Zurich Radar M4: 134.605

LSZH Radar M5 132.835 (Archives)
Zurich, Switzerland

Feed Status: UP
Listen in your browser - HTML5 player(in browser, HTML5)
Click here to listen with your own player(launches your MP3 player)

LSZH 261250Z 28015KT 4000 SHRA FEW027 SCT034 BKN040 11/08 Q1009 BECMG 6000 NSW

LSZH Flight Activity (Flightaware)

Listeners: 0 out of 1855 total

Zurich Radar M5: 132.835

LSZH Radar M6 133.690 (Archives)
Zurich, Switzerland

Feed Status: UP
Listen in your browser - HTML5 player(in browser, HTML5)
Click here to listen with your own player(launches your MP3 player)

LSZH 261250Z 28015KT 4000 SHRA FEW027 SCT034 BKN040 11/08 Q1009 BECMG 6000 NSW

LSZH Flight Activity (Flightaware)

Listeners: 0 out of 1855 total

Zurich Radar M6: 133.690

LSZH Radar North 136.155 (Archives)
Zurich, Switzerland

Feed Status: UP
Listen in your browser - HTML5 player(in browser, HTML5)
Click here to listen with your own player(launches your MP3 player)

LSZH 261250Z 28015KT 4000 SHRA FEW027 SCT034 BKN040 11/08 Q1009 BECMG 6000 NSW

LSZH Flight Activity (Flightaware)

Listeners: 0 out of 1855 total

Zurich Radar (Below FL240 North): 136.155

LSZH Radar West 135.680 (Archives)
Zurich, Switzerland

Feed Status: UP
Listen in your browser - HTML5 player(in browser, HTML5)
Click here to listen with your own player(launches your MP3 player)

LSZH 261250Z 28015KT 4000 SHRA FEW027 SCT034 BKN040 11/08 Q1009 BECMG 6000 NSW

LSZH Flight Activity (Flightaware)

Listeners: 1 out of 1855 total


LSZH Tower (Archives)
Zurich, Switzerland

Feed Status: UP
Listen in your browser - HTML5 player(in browser, HTML5)
Click here to listen with your own player(launches your MP3 player)

LSZH 261250Z 28015KT 4000 SHRA FEW027 SCT034 BKN040 11/08 Q1009 BECMG 6000 NSW

LSZH Flight Activity (Flightaware)

Listeners: 15 out of 1855 total

Zurich Tower: 118.100

LSZH Tower (14/32) (Archives)
Zurich, Switzerland

Feed Status: UP
Listen in your browser - HTML5 player(in browser, HTML5)
Click here to listen with your own player(launches your MP3 player)

LSZH 261250Z 28015KT 4000 SHRA FEW027 SCT034 BKN040 11/08 Q1009 BECMG 6000 NSW

LSZH Flight Activity (Flightaware)

Listeners: 3 out of 1855 total

Zurich Tower (Rwy 14 App/32 Takeoff): 120.225

LSZH Twr/Gnd (backup) (Archives)
Zurich, Switzerland

Feed Status: UP
Listen in your browser - HTML5 player(in browser, HTML5)
Click here to listen with your own player(launches your MP3 player)

LSZH 261250Z 28015KT 4000 SHRA FEW027 SCT034 BKN040 11/08 Q1009 BECMG 6000 NSW

LSZH Flight Activity (Flightaware)

Listeners: 0 out of 1855 total

Zurich Twr/Gnd (backup): 119.700

LSZL Tower (Archives)
Locarno, Switzerland

Feed Status: UP
Listen in your browser - HTML5 player(in browser, HTML5)
Click here to listen with your own player(launches your MP3 player)

LSZL 261250Z 25004KT 210V300 9999 FEW070 SCT140 19/08 Q1005 RMK BLU+

LSZL Flight Activity (Flightaware)

Listeners: 2 out of 1855 total


LSZN CTAF
Zurich, Switzerland

Feed Status: DOWN
Offline since: 2022-09-21 07:19:39 UTC

Hausen am Albis CTAF: 130.755

LSZR Tower (Archives)
Altenrhein, Switzerland

Feed Status: UP
Listen in your browser - HTML5 player(in browser, HTML5)
Click here to listen with your own player(launches your MP3 player)

LSZR 261250Z 27004KT 200V320 9999 SCT045 BKN085 17/07 Q1008 RMK I

LSZR Flight Activity (Flightaware)

Listeners: 0 out of 1855 total

Altenrhein Tower: 135.425

LSZW CTAF (Archives)
Thun, Switzerland

Feed Status: UP
Listen in your browser - HTML5 player(in browser, HTML5)
Click here to listen with your own player(launches your MP3 player)

LSZW Flight Activity (Flightaware)

Listeners: 0 out of 1855 total

Thun CTAF/Info: 123.250

LTBA Gnd/Twr/App (Archives)
Istanbul, Turkey

Feed Status: UP
Listen in your browser - HTML5 player(in browser, HTML5)
Click here to listen with your own player(launches your MP3 player)

LTBA 261250Z 26010KT CAVOK 23/08 Q1014 RMK RWY23 25011KT

LTBA Flight Activity (Flightaware)

Listeners: 4 out of 1855 total

Istanbul Approach: 126.425
Istanbul Approach: 133.075
Istanbul Tower: 118.100
Istanbul Tower: 118.375

LTFJ Del/Gnd/Twr (Archives)
Istanbul, Turkey

Feed Status: UP
Listen in your browser - HTML5 player(in browser, HTML5)
Click here to listen with your own player(launches your MP3 player)

LTFJ 261250Z 26012KT CAVOK 24/05 Q1014 NOSIG RMK RWY24 25010KT

LTFJ Flight Activity (Flightaware)

Listeners: 5 out of 1855 total

Pegasus Dispatch: 131.750

LTFM App/Dep
Istanbul, Turkey

Feed Status: DOWN
Offline since: 2022-09-13 11:29:39 UTC

LTFM 261250Z 22015KT CAVOK 25/05 Q1013 NOSIG RMK RWY17L 22015G25KT RWY34L 21012KT RWY16R 22013KT RWY36 23015KT RWY18 23017KT

Yesilkoy Approach: 130.300
Yesilkoy Approach: 118.950
Yesilkoy Radar: 132.475
Yesilkoy Radar: 132.050
Yesilkoy Radar: 131.125
Yesilkoy Radar: 132.325

LTFM Gnd/Twr (Archives)
Istanbul, Turkey

Feed Status: UP
Listen in your browser - HTML5 player(in browser, HTML5)
Click here to listen with your own player(launches your MP3 player)

LTFM 261250Z 22015KT CAVOK 25/05 Q1013 NOSIG RMK RWY17L 22015G25KT RWY34L 21012KT RWY16R 22013KT RWY36 23015KT RWY18 23017KT

LTFM Flight Activity (Flightaware)

Listeners: 2 out of 1855 total

Istanbul Ground : 122.600
Istanbul Ground: 124.425
Istanbul Tower: 118.075
Istanbul Tower: 122.700
Istanbul Tower: 127.500

LUKK ACC #1 (Archives)
Chisinau, Moldova

Feed Status: UP
Listen in your browser - HTML5 player(in browser, HTML5)
Click here to listen with your own player(launches your MP3 player)

LUKK 261300Z 24011KT CAVOK 24/07 Q1008 NOSIG

LUKK Flight Activity (Flightaware)

Listeners: 0 out of 1855 total

Chisinau ACC: 130.975

LUKK ACC #2 (Archives)
Chisinau, Moldova

Feed Status: UP
Listen in your browser - HTML5 player(in browser, HTML5)
Click here to listen with your own player(launches your MP3 player)

LUKK 261300Z 24011KT CAVOK 24/07 Q1008 NOSIG

LUKK Flight Activity (Flightaware)

Listeners: 0 out of 1855 total

Chisinau ACC: 128.975

LUKK Air to Air (Archives)
Chisinau, Moldova

Feed Status: UP
Listen in your browser - HTML5 player(in browser, HTML5)
Click here to listen with your own player(launches your MP3 player)

LUKK 261300Z 24011KT CAVOK 24/07 Q1008 NOSIG

LUKK Flight Activity (Flightaware)

Listeners: 0 out of 1855 total

Chisinau Air to Air: 123.450

LUKK Alternate (Archives)
Chisinau, Moldova

Feed Status: UP
Listen in your browser - HTML5 player(in browser, HTML5)
Click here to listen with your own player(launches your MP3 player)

LUKK 261300Z 24011KT CAVOK 24/07 Q1008 NOSIG

LUKK Flight Activity (Flightaware)

Listeners: 0 out of 1855 total

Chisinau Alternate: 129.725

LUKK Approach #1 (Archives)
Chisinau, Moldova

Feed Status: UP
Listen in your browser - HTML5 player(in browser, HTML5)
Click here to listen with your own player(launches your MP3 player)

LUKK 261300Z 24011KT CAVOK 24/07 Q1008 NOSIG

LUKK Flight Activity (Flightaware)

Listeners: 0 out of 1855 total

Chisinau Approach: 133.300

LUKK Approach #2 (Archives)
Chisinau, Moldova

Feed Status: UP
Listen in your browser - HTML5 player(in browser, HTML5)
Click here to listen with your own player(launches your MP3 player)

LUKK 261300Z 24011KT CAVOK 24/07 Q1008 NOSIG

LUKK Flight Activity (Flightaware)

Listeners: 0 out of 1855 total

Chisinau Approach: 133.300

LUKK Emergency/Guard (Archives)
Chisinau, Moldova

Feed Status: UP
Listen in your browser - HTML5 player(in browser, HTML5)
Click here to listen with your own player(launches your MP3 player)

LUKK 261300Z 24011KT CAVOK 24/07 Q1008 NOSIG

LUKK Flight Activity (Flightaware)

Listeners: 0 out of 1855 total

Emergency/Guard: 121.500

LUKK Ground #2 (Archives)
Chisinau, Moldova

Feed Status: UP
Listen in your browser - HTML5 player(in browser, HTML5)
Click here to listen with your own player(launches your MP3 player)

LUKK 261300Z 24011KT CAVOK 24/07 Q1008 NOSIG

LUKK Flight Activity (Flightaware)

Listeners: 0 out of 1855 total

Chisinau Ground: 121.800

LUKK Handling (Archives)
Chisinau, Moldova

Feed Status: UP
Listen in your browser - HTML5 player(in browser, HTML5)
Click here to listen with your own player(launches your MP3 player)

LUKK 261300Z 24011KT CAVOK 24/07 Q1008 NOSIG

LUKK Flight Activity (Flightaware)

Listeners: 0 out of 1855 total

Chisinau Handling: 131.700

LUKK Tower #2 (Archives)
Chisinau, Moldova

Feed Status: UP
Listen in your browser - HTML5 player(in browser, HTML5)
Click here to listen with your own player(launches your MP3 player)

LUKK 261300Z 24011KT CAVOK 24/07 Q1008 NOSIG

LUKK Flight Activity (Flightaware)

Listeners: 0 out of 1855 total

Chisinau Tower: 118.100

LWSK ACC (Lower) (Archives)
Petrovec, North Macedonia, Republic of

Feed Status: UP
Listen in your browser - HTML5 player(in browser, HTML5)
Click here to listen with your own player(launches your MP3 player)

LWSK 261300Z 29001KT 9999 SCT070 BKN100 18/13 Q1011 NOSIG

LWSK Flight Activity (Flightaware)

Listeners: 0 out of 1855 total

Skopje Control (Lower): 119.375

LWSK ACC (Upper) (Archives)
Petrovec, North Macedonia, Republic of

Feed Status: UP
Listen in your browser - HTML5 player(in browser, HTML5)
Click here to listen with your own player(launches your MP3 player)

LWSK 261300Z 29001KT 9999 SCT070 BKN100 18/13 Q1011 NOSIG

LWSK Flight Activity (Flightaware)

Listeners: 0 out of 1855 total

Skopje Control (Upper): 120.015

LWSK Approach (Archives)
Petrovec, North Macedonia, Republic of

Feed Status: UP
Listen in your browser - HTML5 player(in browser, HTML5)
Click here to listen with your own player(launches your MP3 player)

LWSK 261300Z 29001KT 9999 SCT070 BKN100 18/13 Q1011 NOSIG

LWSK Flight Activity (Flightaware)

Listeners: 0 out of 1855 total

Skopje Approach/Departure: 120.300

LWSK ATIS (Archives)
Petrovec, North Macedonia, Republic of

Feed Status: UP
Listen in your browser - HTML5 player(in browser, HTML5)
Click here to listen with your own player(launches your MP3 player)

LWSK 261300Z 29001KT 9999 SCT070 BKN100 18/13 Q1011 NOSIG

LWSK Flight Activity (Flightaware)

Listeners: 0 out of 1855 total

Skopje ATIS: 130.125

LWSK Tower (Archives)
Petrovec, North Macedonia, Republic of

Feed Status: UP
Listen in your browser - HTML5 player(in browser, HTML5)
Click here to listen with your own player(launches your MP3 player)

LWSK 261300Z 29001KT 9999 SCT070 BKN100 18/13 Q1011 NOSIG

LWSK Flight Activity (Flightaware)

Listeners: 0 out of 1855 total

Skopje Tower: 118.500

LYNI Twr/App (Archives)
Nis, Serbia

Feed Status: UP
Listen in your browser - HTML5 player(in browser, HTML5)
Click here to listen with your own player(launches your MP3 player)

LYNI 261230Z VRB01KT 9999 -RA SCT040 18/15 Q1011 NOSIG

LYNI Flight Activity (Flightaware)

Listeners: 0 out of 1855 total

Nis Approach: 119.525
Nis Approach/Tower (Alternate): 136.075
Nis Tower: 118.950

LZKZ Gnd/Twr/App (Archives)
Kosice, Slovakia

Feed Status: UP
Listen in your browser - HTML5 player(in browser, HTML5)
Click here to listen with your own player(launches your MP3 player)

LZKZ 261300Z 24007KT 9999 SCT007 BKN013 13/12 Q1007 TEMPO BKN015

LZKZ Flight Activity (Flightaware)

Listeners: 1 out of 1855 total

Kosice Approach: 129.350
Kosice Approach (backup): 119.850
Kosice Ground: 121.700
Kosice Handling: 131.850
Kosice Tower: 120.400

LZNI CTAF (Archives)
Nitra, Slovakia

Feed Status: UP
Listen in your browser - HTML5 player(in browser, HTML5)
Click here to listen with your own player(launches your MP3 player)

LZNI Flight Activity (Flightaware)

Listeners: 0 out of 1855 total

Nitra Traffic Radio: 123.405

LZPE CTAF/UNICOM (Archives)
Prievidza, Slovakia

Feed Status: UP
Listen in your browser - HTML5 player(in browser, HTML5)
Click here to listen with your own player(launches your MP3 player)

LZPE Flight Activity (Flightaware)

Listeners: 0 out of 1855 total

Prievidza CTAF/UNICOM: 123.055

LZPP Ground/Tower (Archives)
Piestany, Slovakia

Feed Status: UP
Listen in your browser - HTML5 player(in browser, HTML5)
Click here to listen with your own player(launches your MP3 player)

LZPP 261230Z 29005KT 240V320 9999 SCT030 BKN045 17/11 Q1007

LZPP Flight Activity (Flightaware)

Listeners: 0 out of 1855 total

Piestany Ground: 121.700
Piestany Tower: 118.575

LZPT CTAF (Archives)
Partizanske, Slovakia

Feed Status: UP
Listen in your browser - HTML5 player(in browser, HTML5)
Click here to listen with your own player(launches your MP3 player)

LZPT Flight Activity (Flightaware)

Listeners: 0 out of 1855 total

Male Bielice CTAF: 123.500

URSS Gnd/Twr/App (Archives)
Sochi, Russia

Feed Status: UP
Listen in your browser - HTML5 player(in browser, HTML5)
Click here to listen with your own player(launches your MP3 player)

URSS 261230Z 21002MPS 170V250 9999 NSC 24/08 Q1017 R02/010070 R06/010070 NOSIG RMK R06/23002MPS QFE761

URSS Flight Activity (Flightaware)

Listeners: 2 out of 1855 total

Sochi Approach: 118.300
Sochi Approach: 119.700
Sochi District (Small Aircraft): 118.500
Sochi Start: 121.200
Sochi Taxi: 119.000
Sochi Tower: 124.600

USDD Gnd/Twr/App/Control (Archives)
Salekhard, Russia

Feed Status: UP
Listen in your browser - HTML5 player(in browser, HTML5)
Click here to listen with your own player(launches your MP3 player)


USDD Flight Activity (Flightaware)

Listeners: 0 out of 1855 total

Salekhard Control: 132.300
Salekhard Ground: 118.800
Salekhard Info: 125.200
Salekhard Krug: 120.800
Salekhard Tower: 118.600
Salekhard Transit: 131.700

UUEE Twr/App/Radar (Archives)
Moscow, Russia

Feed Status: UP
Listen in your browser - HTML5 player(in browser, HTML5)
Click here to listen with your own player(launches your MP3 player)

UUEE 261230Z 28005MPS 200V350 9999 -SHRA BKN033CB 09/06 Q1009 R24L/190057 R24C/190057 NOSIG

UUEE Flight Activity (Flightaware)

Listeners: 5 out of 1855 total

Sheremetyevo Radar (low altitude): 119.300
Sheremetyevo Radar/Arrival: 122.700
Sheremetyevo Radar/Departure: 126.600
Sheremetyevo Tower: 131.500